Time,TemperatureF,DewpointF,PressureIn,WindDirection,WindDirectionDegrees,WindSpeedMPH,WindSpeedGustMPH,Humidity,HourlyPrecipIn,Conditions,Clouds,dailyrainin,SoftwareType,DateUTC
2013-03-31 00:00:00,54.1,42.6,30.02,NNW,341,4.6,4.6,65,0.00,CLR,OVC,0.00,WeatherDisplay:10.37,2013-03-31 07:00:00,
2013-03-31 00:01:00,66.2,47.5,29.99,ESE,118,2.0,7.0,51,0.00,CLR,OVC,0.00,WeatherDisplay:10.37,2013-03-31 07:01:00,
2013-03-31 00:05:00,53.9,42.8,30.02,North,355,8.1,8.1,66,0.00,CLR,OVC,0.00,WeatherDisplay:10.37,2013-03-31 07:05:00,
2013-03-31 00:06:00,53.9,42.8,30.02,NNW,338,4.6,4.6,66,0.00,CLR,OVC,0.00,WeatherDisplay:10.37,2013-03-31 07:06:00,
2013-03-31 00:10:00,53.8,42.7,30.02,NNW,343,4.0,4.0,66,0.00,CLR,OVC,0.00,WeatherDisplay:10.37,2013-03-31 07:10:00,
2013-03-31 00:11:00,53.8,42.7,30.02,North,355,4.6,4.6,66,0.00,CLR,OVC,0.00,WeatherDisplay:10.37,2013-03-31 07:11:00,
2013-03-31 00:15:00,53.6,42.5,30.02,North,349,10.4,10.4,66,0.00,CLR,OVC,0.00,WeatherDisplay:10.37,2013-03-31 07:15:00,
2013-03-31 00:16:00,53.6,42.5,30.02,North,350,6.9,6.9,66,0.00,CLR,OVC,0.00,WeatherDisplay:10.37,2013-03-31 07:16:00,
2013-03-31 00:20:00,53.5,42.8,30.02,North,355,5.8,5.8,67,0.00,CLR,OVC,0.00,WeatherDisplay:10.37,2013-03-31 07:20:00,
2013-03-31 00:21:00,53.4,42.7,30.02,North,355,5.8,5.8,67,0.00,CLR,OVC,0.00,WeatherDisplay:10.37,2013-03-31 07:21:00,
2013-03-31 00:22:00,53.4,42.7,30.02,North,350,6.9,6.9,67,0.00,CLR,OVC,0.00,WeatherDisplay:10.37,2013-03-31 07:22:00,
2013-03-31 00:25:00,53.3,42.6,30.02,NNW,346,4.0,4.0,67,0.00,CLR,OVC,0.00,WeatherDisplay:10.37,2013-03-31 07:25:00,
2013-03-31 00:26:00,53.3,42.6,30.02,NNW,344,8.1,8.1,67,0.00,CLR,OVC,0.00,WeatherDisplay:10.37,2013-03-31 07:26:00,
2013-03-31 00:27:00,53.3,42.6,30.02,NNW,342,8.1,8.1,67,0.00,CLR,OVC,0.00,WeatherDisplay:10.37,2013-03-31 07:27:00,
2013-03-31 00:30:00,53.2,42.9,30.02,North,351,11.5,11.5,68,0.00,CLR,OVC,0.00,WeatherDisplay:10.37,2013-03-31 07:30:00,
2013-03-31 00:31:00,53.1,42.8,30.02,North,9,8.1,8.1,68,0.00,CLR,OVC,0.00,WeatherDisplay:10.37,2013-03-31 07:31:00,
2013-03-31 00:33:00,53.0,42.7,30.02,NNW,348,6.9,6.9,68,0.00,CLR,OVC,0.00,WeatherDisplay:10.37,2013-03-31 07:33:00,
2013-03-31 00:34:00,53.0,42.7,30.02,NNW,333,6.9,6.9,68,0.00,CLR,OVC,0.00,WeatherDisplay:10.37,2013-03-31 07:34:00,
2013-03-31 00:35:00,53.0,42.7,30.02,NNW,337,6.9,6.9,68,0.00,CLR,OVC,0.00,WeatherDisplay:10.37,2013-03-31 07:35:00,
2013-03-31 00:36:00,53.0,42.7,30.02,NNW,336,6.9,6.9,68,0.00,CLR,OVC,0.00,WeatherDisplay:10.37,2013-03-31 07:36:00,
2013-03-31 00:38:00,52.9,42.6,30.02,NNW,342,4.6,4.6,68,0.00,CLR,OVC,0.00,WeatherDisplay:10.37,2013-03-31 07:38:00,
2013-03-31 00:39:00,52.9,42.6,30.02,NNW,342,4.6,4.6,68,0.00,CLR,OVC,0.00,WeatherDisplay:10.37,2013-03-31 07:39:00,
2013-03-31 00:41:00,52.8,42.9,30.02,NNW,334,6.9,6.9,69,0.00,CLR,OVC,0.00,WeatherDisplay:10.37,2013-03-31 07:41:00,
2013-03-31 00:44:00,52.6,42.7,30.02,NNW,341,4.6,4.6,69,0.00,CLR,OVC,0.00,WeatherDisplay:10.37,2013-03-31 07:44:00,
2013-03-31 00:46:00,52.5,42.6,30.01,NNW,346,5.8,5.8,69,0.00,CLR,OVC,0.00,WeatherDisplay:10.37,2013-03-31 07:46:00,
2013-03-31 00:49:00,52.3,42.8,30.01,NNW,342,9.2,9.2,70,0.00,CLR,OVC,0.00,WeatherDisplay:10.37,2013-03-31 07:49:00,
2013-03-31 00:51:00,68.0,46.4,29.98,South,180,2.0,7.0,46,0.00,CLR,OVC,0.00,WeatherDisplay:10.37,2013-03-31 07:51:00,
2013-03-31 00:52:00,52.3,42.8,30.01,NNW,341,4.6,4.6,70,0.00,CLR,OVC,0.00,WeatherDisplay:10.37,2013-03-31 07:52:00,
2013-03-31 00:53:00,52.2,42.7,30.02,NNW,338,5.8,5.8,70,0.00,CLR,OVC,0.00,WeatherDisplay:10.37,2013-03-31 07:53:00,
2013-03-31 00:54:00,52.2,42.7,30.02,NNW,346,6.0,6.0,70,0.00,CLR,OVC,0.00,WeatherDisplay:10.37,2013-03-31 07:54:00,
2013-03-31 00:56:00,68.0,46.4,29.98,South,180,2.0,7.0,46,0.00,CLR,OVC,0.00,WeatherDisplay:10.37,2013-03-31 07:56:00,
2013-03-31 00:57:00,52.1,42.6,30.01,NNW,342,5.8,5.8,70,0.00,CLR,OVC,0.00,WeatherDisplay:10.37,2013-03-31 07:57:00,
2013-03-31 00:58:00,52.1,42.6,30.01,North,360,5.8,5.8,70,0.00,CLR,OVC,0.00,WeatherDisplay:10.37,2013-03-31 07:58:00,
2013-03-31 00:59:00,52.1,42.6,30.01,NNW,332,9.2,9.2,70,0.00,CLR,OVC,0.00,WeatherDisplay:10.37,2013-03-31 07:59:00,
2013-03-31 01:01:00,68.3,47.8,29.97,South,180,2.0,7.0,48,0.00,CLR,OVC,0.00,WeatherDisplay:10.37,2013-03-31 08:01:00,
2013-03-31 01:02:00,52.1,43.0,30.01,NNW,345,6.9,6.9,71,0.00,CLR,OVC,0.00,WeatherDisplay:10.37,2013-03-31 08:02:00,
2013-03-31 01:03:00,52.0,42.9,30.01,NNW,347,4.6,4.6,71,0.00,CLR,OVC,0.00,WeatherDisplay:10.37,2013-03-31 08:03:00,
2013-03-31 01:04:00,52.1,43.0,30.01,North,350,8.1,8.1,71,0.00,CLR,OVC,0.00,WeatherDisplay:10.37,2013-03-31 08:04:00,
2013-03-31 01:06:00,68.3,47.8,29.97,South,180,2.0,7.0,48,0.00,CLR,OVC,0.00,WeatherDisplay:10.37,2013-03-31 08:06:00,
2013-03-31 01:07:00,52.0,42.9,30.01,NNW,344,4.0,4.0,71,0.00,CLR,OVC,0.00,WeatherDisplay:10.37,2013-03-31 08:07:00,
2013-03-31 01:08:00,51.9,42.8,30.01,NNW,346,6.0,6.0,71,0.00,CLR,OVC,0.00,WeatherDisplay:10.37,2013-03-31 08:08:00,
2013-03-31 01:09:00,51.9,42.8,30.01,NNW,329,9.2,9.2,71,0.00,CLR,OVC,0.00,WeatherDisplay:10.37,2013-03-31 08:09:00,
2013-03-31 01:11:00,68.3,47.8,29.97,South,180,2.0,7.0,48,0.00,CLR,OVC,0.00,WeatherDisplay:10.37,2013-03-31 08:11:00,
2013-03-31 01:12:00,51.8,42.7,30.01,NNW,345,4.6,4.6,71,0.00,CLR,OVC,0.00,WeatherDisplay:10.37,2013-03-31 08:12:00,
2013-03-31 01:13:00,51.8,42.7,30.01,NNW,337,4.6,4.6,71,0.00,CLR,OVC,0.00,WeatherDisplay:10.37,2013-03-31 08:13:00,
2013-03-31 01:14:00,51.7,42.6,30.01,NNW,341,3.5,3.5,71,0.00,CLR,OVC,0.00,WeatherDisplay:10.37,2013-03-31 08:14:00,
2013-03-31 01:16:00,68.3,47.8,29.97,South,180,2.0,7.0,48,0.00,CLR,OVC,0.00,WeatherDisplay:10.37,2013-03-31 08:16:00,
2013-03-31 01:17:00,51.6,42.9,30.01,NNW,348,4.6,4.6,72,0.00,CLR,OVC,0.00,WeatherDisplay:10.37,2013-03-31 08:17:00,
2013-03-31 01:18:00,51.6,42.9,30.01,NNW,331,4.6,4.6,72,0.00,CLR,OVC,0.00,WeatherDisplay:10.37,2013-03-31 08:18:00,
2013-03-31 01:19:00,51.5,42.8,30.01,NNW,344,6.9,6.9,72,0.00,CLR,OVC,0.00,WeatherDisplay:10.37,2013-03-31 08:19:00,
2013-03-31 01:21:00,68.3,47.8,29.97,South,180,2.0,7.0,48,0.00,CLR,OVC,0.00,WeatherDisplay:10.37,2013-03-31 08:21:00,
2013-03-31 01:23:00,51.4,42.7,30.01,NNW,342,4.6,4.6,72,0.00,CLR,OVC,0.00,WeatherDisplay:10.37,2013-03-31 08:23:00,
2013-03-31 01:24:00,51.3,42.9,30.01,NNW,340,4.6,4.6,73,0.00,CLR,OVC,0.00,WeatherDisplay:10.37,2013-03-31 08:24:00,
2013-03-31 01:26:00,68.3,47.8,29.97,South,180,2.0,7.0,48,0.00,CLR,OVC,0.00,WeatherDisplay:10.37,2013-03-31 08:26:00,
2013-03-31 01:28:00,51.2,42.8,30.01,NNW,348,4.6,4.6,73,0.00,CLR,OVC,0.00,WeatherDisplay:10.37,2013-03-31 08:28:00,
2013-03-31 01:29:00,51.1,42.7,30.01,NNW,344,6.9,6.9,73,0.00,CLR,OVC,0.00,WeatherDisplay:10.37,2013-03-31 08:29:00,
2013-03-31 01:30:00,51.1,42.7,30.01,North,355,6.9,6.9,73,0.00,CLR,OVC,0.00,WeatherDisplay:10.37,2013-03-31 08:30:00,
2013-03-31 01:31:00,69.9,47.6,29.96,South,186,3.0,7.0,45,0.00,CLR,OVC,0.00,WeatherDisplay:10.37,2013-03-31 08:31:00,
2013-03-31 01:33:00,51.0,43.0,30.01,NNW,342,3.5,3.5,74,0.00,CLR,OVC,0.00,WeatherDisplay:10.37,2013-03-31 08:33:00,
2013-03-31 01:34:00,51.0,43.0,30.01,NNW,341,5.8,5.8,74,0.00,CLR,OVC,0.00,WeatherDisplay:10.37,2013-03-31 08:34:00,
2013-03-31 01:35:00,51.0,43.0,30.01,NNW,342,3.5,3.5,74,0.00,CLR,OVC,0.00,WeatherDisplay:10.37,2013-03-31 08:35:00,
2013-03-31 01:36:00,69.9,47.6,29.96,SSW,212,3.0,7.0,45,0.00,CLR,OVC,0.00,WeatherDisplay:10.37,2013-03-31 08:36:00,
2013-03-31 01:38:00,50.9,42.9,30.01,NNW,340,3.5,3.5,74,0.00,CLR,OVC,0.00,WeatherDisplay:10.37,2013-03-31 08:38:00,
2013-03-31 01:39:00,50.9,42.9,30.01,NNW,340,1.1,0.0,74,0.00,CLR,OVC,0.00,WeatherDisplay:10.37,2013-03-31 08:39:00,
2013-03-31 01:40:00,50.9,42.9,30.01,NNW,340,0.0,0.0,74,0.00,CLR,OVC,0.00,WeatherDisplay:10.37,2013-03-31 08:40:00,
2013-03-31 01:41:00,69.9,47.6,29.96,SW,225,3.0,7.0,45,0.00,CLR,OVC,0.00,WeatherDisplay:10.37,2013-03-31 08:41:00,
2013-03-31 01:43:00,50.9,42.9,30.01,NNW,340,0.0,0.0,74,0.00,CLR,OVC,0.00,WeatherDisplay:10.37,2013-03-31 08:43:00,
2013-03-31 01:44:00,50.7,43.1,30.01,NNW,333,3.5,3.5,75,0.00,CLR,OVC,0.00,WeatherDisplay:10.37,2013-03-31 08:44:00,
2013-03-31 01:45:00,50.6,43.0,30.01,NNW,342,3.5,3.5,75,0.00,CLR,OVC,0.00,WeatherDisplay:10.37,2013-03-31 08:45:00,
2013-03-31 01:46:00,69.9,47.6,29.96,SW,225,3.0,7.0,45,0.00,CLR,OVC,0.00,WeatherDisplay:10.37,2013-03-31 08:46:00,
2013-03-31 01:48:00,50.6,43.0,30.01,North,360,4.0,4.0,75,0.00,CLR,OVC,0.00,WeatherDisplay:10.37,2013-03-31 08:48:00,
2013-03-31 01:49:00,50.5,42.9,30.01,NNW,342,8.1,8.1,75,0.00,CLR,OVC,0.00,WeatherDisplay:10.37,2013-03-31 08:49:00,
2013-03-31 01:50:00,50.5,42.9,30.01,NNW,342,8.1,8.1,75,0.00,CLR,OVC,0.00,WeatherDisplay:10.37,2013-03-31 08:50:00,
2013-03-31 01:51:00,69.9,47.6,29.96,SW,225,3.0,7.0,45,0.00,CLR,OVC,0.00,WeatherDisplay:10.37,2013-03-31 08:51:00,
2013-03-31 01:53:00,50.4,42.8,30.01,North,350,2.3,2.3,75,0.00,CLR,OVC,0.00,WeatherDisplay:10.37,2013-03-31 08:53:00,
2013-03-31 01:54:00,50.4,42.8,30.01,North,350,3.5,3.5,75,0.00,CLR,OVC,0.00,WeatherDisplay:10.37,2013-03-31 08:54:00,
2013-03-31 01:55:00,50.4,43.1,30.01,NNW,347,1.0,6.0,76,0.00,CLR,OVC,0.00,WeatherDisplay:10.37,2013-03-31 08:55:00,
2013-03-31 01:56:00,69.9,47.6,29.96,SW,225,3.0,7.0,45,0.00,CLR,OVC,0.00,WeatherDisplay:10.37,2013-03-31 08:56:00,
2013-03-31 01:58:00,50.2,42.9,30.01,NNE,14,10.4,10.4,76,0.00,CLR,OVC,0.00,WeatherDisplay:10.37,2013-03-31 08:58:00,
2013-03-31 01:59:00,50.2,42.9,30.01,NNE,14,10.4,10.4,76,0.00,CLR,OVC,0.00,WeatherDisplay:10.37,2013-03-31 08:59:00,
2013-03-31 02:01:00,50.2,42.9,30.01,NNW,338,8.1,8.1,76,0.00,CLR,OVC,0.00,WeatherDisplay:10.37,2013-03-31 09:01:00,
2013-03-31 02:04:00,50.2,42.9,30.01,North,360,9.2,9.2,76,0.00,CLR,OVC,0.00,WeatherDisplay:10.37,2013-03-31 09:04:00,
2013-03-31 02:06:00,50.2,42.9,30.01,North,351,3.5,3.5,76,0.00,CLR,OVC,0.00,WeatherDisplay:10.37,2013-03-31 09:06:00,
2013-03-31 02:09:00,50.1,43.2,30.01,North,5,4.6,4.6,77,0.00,CLR,OVC,0.00,WeatherDisplay:10.37,2013-03-31 09:09:00,
2013-03-31 02:11:00,70.6,46.4,29.94,SSW,202,2.0,8.0,42,0.00,CLR,OVC,0.00,WeatherDisplay:10.37,2013-03-31 09:11:00,
2013-03-31 02:12:00,50.1,43.2,30.01,NNW,344,3.5,3.5,77,0.00,CLR,OVC,0.00,WeatherDisplay:10.37,2013-03-31 09:12:00,
2013-03-31 02:14:00,50.0,43.1,30.01,North,5,6.9,6.9,77,0.00,CLR,OVC,0.00,WeatherDisplay:10.37,2013-03-31 09:14:00,
2013-03-31 02:16:00,70.6,46.4,29.94,SSW,202,2.0,8.0,42,0.00,CLR,OVC,0.00,WeatherDisplay:10.37,2013-03-31 09:16:00,
2013-03-31 02:17:00,49.9,43.0,30.01,NW,322,4.0,4.0,77,0.00,CLR,OVC,0.00,WeatherDisplay:10.37,2013-03-31 09:17:00,
2013-03-31 02:19:00,49.9,43.0,30.01,NNW,336,3.5,3.5,77,0.00,CLR,OVC,0.00,WeatherDisplay:10.37,2013-03-31 09:19:00,
2013-03-31 02:20:00,49.9,43.3,30.01,NNW,329,6.9,6.9,78,0.00,CLR,OVC,0.00,WeatherDisplay:10.37,2013-03-31 09:20:00,
2013-03-31 02:21:00,70.6,46.4,29.94,SSW,202,2.0,8.0,42,0.00,CLR,OVC,0.00,WeatherDisplay:10.37,2013-03-31 09:21:00,
2013-03-31 02:22:00,49.8,43.2,30.01,North,355,11.5,11.5,78,0.00,CLR,OVC,0.00,WeatherDisplay:10.37,2013-03-31 09:22:00,
2013-03-31 02:24:00,49.8,43.2,30.01,North,5,4.6,4.6,78,0.00,CLR,OVC,0.00,WeatherDisplay:10.37,2013-03-31 09:24:00,
2013-03-31 02:25:00,49.8,43.2,30.01,NNW,339,5.8,5.8,78,0.00,CLR,OVC,0.00,WeatherDisplay:10.37,2013-03-31 09:25:00,
2013-03-31 02:26:00,70.6,46.4,29.94,SSW,202,2.0,8.0,42,0.00,CLR,OVC,0.00,WeatherDisplay:10.37,2013-03-31 09:26:00,
2013-03-31 02:28:00,49.8,43.2,30.01,NNW,341,8.1,8.1,78,0.00,CLR,OVC,0.00,WeatherDisplay:10.37,2013-03-31 09:28:00,
2013-03-31 02:29:00,49.8,43.2,30.01,North,355,10.4,10.4,78,0.00,CLR,OVC,0.00,WeatherDisplay:10.37,2013-03-31 09:29:00,
2013-03-31 02:30:00,49.8,43.2,30.02,North,360,4.6,4.6,78,0.00,CLR,OVC,0.00,WeatherDisplay:10.37,2013-03-31 09:30:00,
2013-03-31 02:31:00,71.6,44.6,29.94,SSW,202,3.0,8.0,38,0.00,CLR,OVC,0.00,WeatherDisplay:10.37,2013-03-31 09:31:00,
2013-03-31 02:33:00,49.7,43.5,30.01,NNW,344,8.1,8.1,79,0.00,CLR,OVC,0.00,WeatherDisplay:10.37,2013-03-31 09:33:00,
2013-03-31 02:34:00,49.7,43.5,30.01,NNW,344,4.6,4.6,79,0.00,CLR,OVC,0.00,WeatherDisplay:10.37,2013-03-31 09:34:00,
2013-03-31 02:35:00,49.7,43.5,30.01,NNW,346,5.0,5.0,79,0.00,CLR,OVC,0.00,WeatherDisplay:10.37,2013-03-31 09:35:00,
2013-03-31 02:36:00,71.6,44.6,29.94,SSW,202,3.0,8.0,38,0.00,CLR,OVC,0.00,WeatherDisplay:10.37,2013-03-31 09:36:00,
2013-03-31 02:38:00,49.6,43.4,30.01,NNW,344,3.5,3.5,79,0.00,CLR,OVC,0.00,WeatherDisplay:10.37,2013-03-31 09:38:00,
2013-03-31 02:39:00,49.6,43.4,30.01,NNW,347,3.5,3.5,79,0.00,CLR,OVC,0.00,WeatherDisplay:10.37,2013-03-31 09:39:00,
2013-03-31 02:40:00,49.6,43.4,30.01,NNW,348,4.6,4.6,79,0.00,CLR,OVC,0.00,WeatherDisplay:10.37,2013-03-31 09:40:00,
2013-03-31 02:41:00,71.6,44.6,29.94,SSW,202,3.0,8.0,38,0.00,CLR,OVC,0.00,WeatherDisplay:10.37,2013-03-31 09:41:00,
2013-03-31 02:43:00,49.4,43.2,30.01,NNW,348,2.3,2.3,79,0.00,CLR,OVC,0.00,WeatherDisplay:10.37,2013-03-31 09:43:00,
2013-03-31 02:44:00,49.5,43.3,30.01,NNW,347,5.0,5.0,79,0.00,CLR,OVC,0.00,WeatherDisplay:10.37,2013-03-31 09:44:00,
2013-03-31 02:45:00,49.5,43.6,30.01,NNW,343,5.8,5.8,80,0.00,CLR,OVC,0.00,WeatherDisplay:10.37,2013-03-31 09:45:00,
2013-03-31 02:46:00,71.6,44.6,29.94,SSW,202,3.0,8.0,38,0.00,CLR,OVC,0.00,WeatherDisplay:10.37,2013-03-31 09:46:00,
2013-03-31 02:48:00,49.4,43.5,30.01,NNW,348,8.1,8.1,80,0.00,CLR,OVC,0.00,WeatherDisplay:10.37,2013-03-31 09:48:00,
2013-03-31 02:50:00,49.4,43.5,30.01,North,355,3.5,3.5,80,0.00,CLR,OVC,0.00,WeatherDisplay:10.37,2013-03-31 09:50:00,
2013-03-31 02:54:00,49.3,43.4,30.01,NNW,338,2.3,2.3,80,0.00,CLR,OVC,0.00,WeatherDisplay:10.37,2013-03-31 09:54:00,
2013-03-31 02:55:00,49.3,43.4,30.01,NNW,338,5.8,5.8,80,0.00,CLR,OVC,0.00,WeatherDisplay:10.37,2013-03-31 09:55:00,
2013-03-31 02:56:00,71.6,44.6,29.94,SSW,202,3.0,8.0,38,0.00,CLR,OVC,0.00,WeatherDisplay:10.37,2013-03-31 09:56:00,
2013-03-31 02:59:00,49.3,43.4,30.01,North,5,5.8,5.8,80,0.00,CLR,OVC,0.00,WeatherDisplay:10.37,2013-03-31 09:59:00,
2013-03-31 03:00:00,49.2,43.3,30.01,NNW,331,4.0,4.0,80,0.00,CLR,OVC,0.00,WeatherDisplay:10.37,2013-03-31 10:00:00,
2013-03-31 03:01:00,72.1,45.1,29.93,SSW,204,2.0,8.0,38,0.00,CLR,OVC,0.00,WeatherDisplay:10.37,2013-03-31 10:01:00,
2013-03-31 03:04:00,49.2,43.6,30.01,NNW,348,6.9,6.9,81,0.00,CLR,OVC,0.00,WeatherDisplay:10.37,2013-03-31 10:04:00,
2013-03-31 03:05:00,49.2,43.6,30.01,NNW,347,3.0,3.0,81,0.00,CLR,OVC,0.00,WeatherDisplay:10.37,2013-03-31 10:05:00,
2013-03-31 03:06:00,72.1,45.1,29.93,SSW,213,2.0,7.0,38,0.00,CLR,OVC,0.00,WeatherDisplay:10.37,2013-03-31 10:06:00,
2013-03-31 03:09:00,49.1,43.5,30.01,North,355,3.5,3.5,81,0.00,CLR,OVC,0.00,WeatherDisplay:10.37,2013-03-31 10:09:00,
2013-03-31 03:10:00,49.2,43.6,30.01,NNW,346,3.5,3.5,81,0.00,CLR,OVC,0.00,WeatherDisplay:10.37,2013-03-31 10:10:00,
2013-03-31 03:11:00,72.1,45.1,29.93,SW,225,2.0,7.0,38,0.00,CLR,OVC,0.00,WeatherDisplay:10.37,2013-03-31 10:11:00,
2013-03-31 03:14:00,49.2,43.6,30.01,NW,323,6.9,6.9,81,0.00,CLR,OVC,0.00,WeatherDisplay:10.37,2013-03-31 10:14:00,
2013-03-31 03:15:00,49.2,43.6,30.01,North,355,6.9,6.9,81,0.00,CLR,OVC,0.00,WeatherDisplay:10.37,2013-03-31 10:15:00,
2013-03-31 03:16:00,72.1,45.1,29.93,SW,225,2.0,7.0,38,0.00,CLR,OVC,0.00,WeatherDisplay:10.37,2013-03-31 10:16:00,
2013-03-31 03:19:00,49.3,43.7,30.01,NNW,338,5.8,5.8,81,0.00,CLR,OVC,0.00,WeatherDisplay:10.37,2013-03-31 10:19:00,
2013-03-31 03:20:00,49.2,43.6,30.01,NNW,342,5.8,5.8,81,0.00,CLR,OVC,0.00,WeatherDisplay:10.37,2013-03-31 10:20:00,
2013-03-31 03:21:00,72.1,45.1,29.93,SW,225,2.0,7.0,38,0.00,CLR,OVC,0.00,WeatherDisplay:10.37,2013-03-31 10:21:00,
2013-03-31 03:24:00,49.3,43.7,30.01,NNW,345,3.5,3.5,81,0.00,CLR,OVC,0.00,WeatherDisplay:10.37,2013-03-31 10:24:00,
2013-03-31 03:25:00,49.3,43.7,30.01,NW,321,7.0,7.0,81,0.00,CLR,OVC,0.00,WeatherDisplay:10.37,2013-03-31 10:25:00,
2013-03-31 03:26:00,72.1,45.1,29.93,SW,225,2.0,7.0,38,0.00,CLR,OVC,0.00,WeatherDisplay:10.37,2013-03-31 10:26:00,
2013-03-31 03:27:00,49.3,43.7,30.01,NNW,340,6.9,6.9,81,0.00,CLR,OVC,0.00,WeatherDisplay:10.37,2013-03-31 10:27:00,
2013-03-31 03:29:00,49.3,43.7,30.01,NNW,342,4.6,4.6,81,0.00,CLR,OVC,0.00,WeatherDisplay:10.37,2013-03-31 10:29:00,
2013-03-31 03:30:00,49.3,43.7,30.01,NNW,345,7.0,7.0,81,0.00,CLR,OVC,0.00,WeatherDisplay:10.37,2013-03-31 10:30:00,
2013-03-31 03:31:00,72.0,44.3,29.92,SW,227,2.0,7.0,37,0.00,CLR,OVC,0.00,WeatherDisplay:10.37,2013-03-31 10:31:00,
2013-03-31 03:32:00,49.3,43.7,30.01,NNW,344,6.9,6.9,81,0.00,CLR,OVC,0.00,WeatherDisplay:10.37,2013-03-31 10:32:00,
2013-03-31 03:34:00,49.3,43.7,30.00,NNW,343,6.9,6.9,81,0.00,CLR,OVC,0.00,WeatherDisplay:10.37,2013-03-31 10:34:00,
2013-03-31 03:35:00,49.4,43.8,30.01,NNW,348,3.5,3.5,81,0.00,CLR,OVC,0.00,WeatherDisplay:10.37,2013-03-31 10:35:00,
2013-03-31 03:36:00,49.3,43.7,30.01,NNW,337,3.5,3.5,81,0.00,CLR,OVC,0.00,WeatherDisplay:10.37,2013-03-31 10:36:00,
2013-03-31 03:37:00,49.3,43.7,30.01,NNW,343,3.5,3.5,81,0.00,CLR,OVC,0.00,WeatherDisplay:10.37,2013-03-31 10:37:00,
2013-03-31 03:40:00,49.3,44.0,30.00,NNW,342,2.3,2.3,82,0.00,CLR,OVC,0.00,WeatherDisplay:10.37,2013-03-31 10:40:00,
2013-03-31 03:41:00,72.0,44.3,29.92,WSW,248,2.0,6.0,37,0.00,CLR,OVC,0.00,WeatherDisplay:10.37,2013-03-31 10:41:00,
2013-03-31 03:42:00,49.2,43.9,30.01,North,349,3.5,3.5,82,0.00,CLR,OVC,0.00,WeatherDisplay:10.37,2013-03-31 10:42:00,
2013-03-31 03:45:00,49.3,44.0,30.00,NNW,335,11.5,11.5,82,0.00,CLR,OVC,0.00,WeatherDisplay:10.37,2013-03-31 10:45:00,
2013-03-31 03:46:00,72.0,44.3,29.92,WSW,248,2.0,6.0,37,0.00,CLR,OVC,0.00,WeatherDisplay:10.37,2013-03-31 10:46:00,
2013-03-31 03:47:00,49.4,44.1,30.00,NNW,348,4.0,4.0,82,0.00,CLR,OVC,0.00,WeatherDisplay:10.37,2013-03-31 10:47:00,
2013-03-31 03:50:00,49.4,44.1,30.00,NNW,337,3.5,3.5,82,0.00,CLR,OVC,0.00,WeatherDisplay:10.37,2013-03-31 10:50:00,
2013-03-31 03:51:00,72.0,44.3,29.92,WSW,248,2.0,6.0,37,0.00,CLR,OVC,0.00,WeatherDisplay:10.37,2013-03-31 10:51:00,
2013-03-31 03:52:00,49.3,44.0,30.00,NNW,332,6.9,6.9,82,0.00,CLR,OVC,0.00,WeatherDisplay:10.37,2013-03-31 10:52:00,
2013-03-31 03:55:00,49.2,43.9,30.00,NNW,339,3.5,3.5,82,0.00,CLR,OVC,0.00,WeatherDisplay:10.37,2013-03-31 10:55:00,
2013-03-31 03:56:00,72.0,44.3,29.92,WSW,248,2.0,6.0,37,0.00,CLR,OVC,0.00,WeatherDisplay:10.37,2013-03-31 10:56:00,
2013-03-31 03:57:00,49.2,43.9,30.00,NNW,333,5.8,5.8,82,0.00,CLR,OVC,0.00,WeatherDisplay:10.37,2013-03-31 10:57:00,
2013-03-31 04:00:00,49.0,43.7,30.00,NNW,327,5.0,5.0,82,0.00,CLR,OVC,0.00,WeatherDisplay:10.37,2013-03-31 11:00:00,
2013-03-31 04:01:00,72.0,42.8,29.91,WSW,248,2.0,7.0,35,0.00,CLR,OVC,0.00,WeatherDisplay:10.37,2013-03-31 11:01:00,
2013-03-31 04:02:00,49.0,43.7,30.00,NNW,341,6.9,6.9,82,0.00,CLR,OVC,0.00,WeatherDisplay:10.37,2013-03-31 11:02:00,
2013-03-31 04:05:00,49.0,43.7,30.00,North,355,9.0,9.0,82,0.00,CLR,OVC,0.00,WeatherDisplay:10.37,2013-03-31 11:05:00,
2013-03-31 04:06:00,72.0,42.8,29.91,WSW,248,2.0,7.0,35,0.00,CLR,OVC,0.00,WeatherDisplay:10.37,2013-03-31 11:06:00,
2013-03-31 04:07:00,49.0,43.7,30.00,NNW,344,9.2,9.2,82,0.00,CLR,OVC,0.00,WeatherDisplay:10.37,2013-03-31 11:07:00,
2013-03-31 04:08:00,49.0,43.7,30.00,North,350,9.2,9.2,82,0.00,CLR,OVC,0.00,WeatherDisplay:10.37,2013-03-31 11:08:00,
2013-03-31 04:10:00,49.1,43.8,30.00,NNW,331,12.7,12.7,82,0.00,CLR,OVC,0.00,WeatherDisplay:10.37,2013-03-31 11:10:00,
2013-03-31 04:11:00,72.0,42.8,29.91,WSW,248,2.0,7.0,35,0.00,CLR,OVC,0.00,WeatherDisplay:10.37,2013-03-31 11:11:00,
2013-03-31 04:12:00,49.1,43.8,30.00,NNW,342,5.8,5.8,82,0.00,CLR,OVC,0.00,WeatherDisplay:10.37,2013-03-31 11:12:00,
2013-03-31 04:13:00,49.2,43.9,30.00,NNW,344,6.0,6.0,82,0.00,CLR,OVC,0.00,WeatherDisplay:10.37,2013-03-31 11:13:00,
2013-03-31 04:15:00,49.1,43.8,30.00,NNW,329,8.1,8.1,82,0.00,CLR,OVC,0.00,WeatherDisplay:10.37,2013-03-31 11:15:00,
2013-03-31 04:16:00,72.0,42.8,29.91,WSW,248,2.0,7.0,35,0.00,CLR,OVC,0.00,WeatherDisplay:10.37,2013-03-31 11:16:00,
2013-03-31 04:18:00,48.9,43.6,30.00,NW,324,6.9,6.9,82,0.00,CLR,OVC,0.00,WeatherDisplay:10.37,2013-03-31 11:18:00,
2013-03-31 04:20:00,48.8,43.9,30.00,North,349,3.5,4.2,83,0.00,CLR,OVC,0.00,WeatherDisplay:10.37,2013-03-31 11:20:00,
2013-03-31 04:21:00,72.0,42.8,29.91,WSW,248,2.0,7.0,35,0.00,CLR,OVC,0.00,WeatherDisplay:10.37,2013-03-31 11:21:00,
2013-03-31 04:23:00,48.7,43.8,30.00,NNW,348,5.8,5.8,83,0.00,CLR,OVC,0.00,WeatherDisplay:10.37,2013-03-31 11:23:00,
2013-03-31 04:25:00,48.7,43.8,30.00,NNW,338,8.1,8.1,83,0.00,CLR,OVC,0.00,WeatherDisplay:10.37,2013-03-31 11:25:00,
2013-03-31 04:26:00,72.0,42.8,29.91,WSW,248,2.0,7.0,35,0.00,CLR,OVC,0.00,WeatherDisplay:10.37,2013-03-31 11:26:00,
2013-03-31 04:28:00,48.7,43.8,30.00,North,355,5.8,5.8,83,0.00,CLR,OVC,0.00,WeatherDisplay:10.37,2013-03-31 11:28:00,
2013-03-31 04:30:00,48.8,43.9,30.00,NNW,343,9.0,9.0,83,0.00,CLR,OVC,0.00,WeatherDisplay:10.37,2013-03-31 11:30:00,
2013-03-31 04:33:00,49.0,44.1,30.00,North,351,10.4,10.4,83,0.00,CLR,OVC,0.00,WeatherDisplay:10.37,2013-03-31 11:33:00,
2013-03-31 04:34:00,49.0,44.1,30.00,NNW,338,8.1,8.1,83,0.00,CLR,OVC,0.00,WeatherDisplay:10.37,2013-03-31 11:34:00,
2013-03-31 04:35:00,49.1,44.2,30.00,NNW,340,7.0,7.0,83,0.00,CLR,OVC,0.00,WeatherDisplay:10.37,2013-03-31 11:35:00,
2013-03-31 04:38:00,49.2,43.9,30.00,NNW,338,6.9,6.9,82,0.00,CLR,OVC,0.00,WeatherDisplay:10.37,2013-03-31 11:38:00,
2013-03-31 04:39:00,49.2,43.9,30.00,NNW,342,7.0,7.0,82,0.00,CLR,OVC,0.00,WeatherDisplay:10.37,2013-03-31 11:39:00,
2013-03-31 04:40:00,49.2,43.9,30.00,NNW,332,9.2,9.2,82,0.00,CLR,OVC,0.00,WeatherDisplay:10.37,2013-03-31 11:40:00,
2013-03-31 04:43:00,49.2,43.9,29.99,North,5,6.9,6.9,82,0.00,CLR,OVC,0.00,WeatherDisplay:10.37,2013-03-31 11:43:00,
2013-03-31 04:44:00,49.2,43.9,29.99,North,5,6.9,6.9,82,0.00,CLR,OVC,0.00,WeatherDisplay:10.37,2013-03-31 11:44:00,
2013-03-31 04:45:00,49.1,43.8,30.00,NW,317,11.0,11.0,82,0.00,CLR,OVC,0.00,WeatherDisplay:10.37,2013-03-31 11:45:00,
2013-03-31 04:49:00,49.1,43.8,29.99,NNW,348,2.3,2.3,82,0.00,CLR,OVC,0.00,WeatherDisplay:10.37,2013-03-31 11:49:00,
2013-03-31 04:51:00,49.1,43.8,30.00,NW,309,4.0,4.0,82,0.00,CLR,OVC,0.00,WeatherDisplay:10.37,2013-03-31 11:51:00,
2013-03-31 04:54:00,49.0,43.7,29.99,NNW,330,6.0,6.0,82,0.00,CLR,OVC,0.00,WeatherDisplay:10.37,2013-03-31 11:54:00,
2013-03-31 04:57:00,48.9,44.0,29.99,NW,309,4.0,4.0,83,0.00,CLR,OVC,0.00,WeatherDisplay:10.37,2013-03-31 11:57:00,
2013-03-31 04:59:00,48.9,44.0,29.99,NNW,346,6.9,6.9,83,0.00,CLR,OVC,0.00,WeatherDisplay:10.37,2013-03-31 11:59:00,
2013-03-31 05:00:00,48.9,44.0,29.99,NNW,346,1.1,1.1,83,0.00,CLR,OVC,0.00,WeatherDisplay:10.37,2013-03-31 12:00:00,
2013-03-31 05:02:00,48.9,44.0,29.99,NNW,346,1.1,1.1,83,0.00,CLR,OVC,0.00,WeatherDisplay:10.37,2013-03-31 12:02:00,
2013-03-31 05:04:00,48.6,43.7,29.99,NNW,336,5.0,5.0,83,0.00,CLR,OVC,0.00,WeatherDisplay:10.37,2013-03-31 12:04:00,
2013-03-31 05:05:00,48.6,43.7,29.99,NNW,344,11.5,11.5,83,0.00,CLR,OVC,0.00,WeatherDisplay:10.37,2013-03-31 12:05:00,
2013-03-31 05:07:00,48.4,43.5,30.00,NNW,341,4.6,4.6,83,0.00,CLR,OVC,0.00,WeatherDisplay:10.37,2013-03-31 12:07:00,
2013-03-31 05:09:00,48.3,43.4,30.00,North,5,6.9,6.9,83,0.00,CLR,OVC,0.00,WeatherDisplay:10.37,2013-03-31 12:09:00,
2013-03-31 05:10:00,48.3,43.4,30.00,North,351,6.9,6.9,83,0.00,CLR,OVC,0.00,WeatherDisplay:10.37,2013-03-31 12:10:00,
2013-03-31 05:12:00,48.2,43.6,29.99,North,351,4.6,4.6,84,0.00,CLR,OVC,0.00,WeatherDisplay:10.37,2013-03-31 12:12:00,
2013-03-31 05:14:00,48.1,43.5,30.00,North,355,3.5,3.5,84,0.00,CLR,OVC,0.00,WeatherDisplay:10.37,2013-03-31 12:14:00,
2013-03-31 05:15:00,48.1,43.5,30.00,North,355,3.5,3.5,84,0.00,CLR,OVC,0.00,WeatherDisplay:10.37,2013-03-31 12:15:00,
2013-03-31 05:17:00,48.0,43.4,29.99,North,355,3.5,3.5,84,0.00,CLR,OVC,0.00,WeatherDisplay:10.37,2013-03-31 12:17:00,
2013-03-31 05:19:00,47.9,43.3,30.00,NNW,341,6.9,6.9,84,0.00,CLR,OVC,0.00,WeatherDisplay:10.37,2013-03-31 12:19:00,
2013-03-31 05:20:00,47.9,43.3,30.00,NNW,341,6.9,6.9,84,0.00,CLR,OVC,0.00,WeatherDisplay:10.37,2013-03-31 12:20:00,
2013-03-31 05:22:00,47.8,43.2,30.00,NNW,342,3.5,3.5,84,0.00,CLR,OVC,0.00,WeatherDisplay:10.37,2013-03-31 12:22:00,
2013-03-31 05:25:00,47.7,43.4,30.00,NE,53,7.0,7.0,85,0.00,CLR,OVC,0.00,WeatherDisplay:10.37,2013-03-31 12:25:00,
2013-03-31 05:28:00,47.7,43.4,30.00,NNW,345,8.1,8.1,85,0.00,CLR,OVC,0.00,WeatherDisplay:10.37,2013-03-31 12:28:00,
2013-03-31 05:30:00,47.8,43.5,30.00,NW,309,8.1,8.1,85,0.00,CLR,OVC,0.00,WeatherDisplay:10.37,2013-03-31 12:30:00,
2013-03-31 05:33:00,47.8,43.5,29.99,NW,316,3.5,3.5,85,0.00,CLR,OVC,0.00,WeatherDisplay:10.37,2013-03-31 12:33:00,
2013-03-31 05:35:00,47.8,43.5,30.00,NNW,345,11.5,11.5,85,0.00,CLR,OVC,0.00,WeatherDisplay:10.37,2013-03-31 12:35:00,
2013-03-31 05:38:00,47.8,43.2,30.00,NNW,342,3.5,3.5,84,0.00,CLR,OVC,0.00,WeatherDisplay:10.37,2013-03-31 12:38:00,
2013-03-31 05:40:00,47.8,43.2,30.00,North,355,5.8,5.8,84,0.00,CLR,OVC,0.00,WeatherDisplay:10.37,2013-03-31 12:40:00,
2013-03-31 05:43:00,47.7,43.4,30.00,NW,323,4.6,4.6,85,0.00,CLR,OVC,0.00,WeatherDisplay:10.37,2013-03-31 12:43:00,
2013-03-31 05:45:00,47.7,43.4,29.99,NNW,333,4.6,4.6,85,0.00,CLR,OVC,0.00,WeatherDisplay:10.37,2013-03-31 12:45:00,
2013-03-31 05:48:00,47.6,43.3,29.99,North,360,8.1,8.1,85,0.00,CLR,OVC,0.00,WeatherDisplay:10.37,2013-03-31 12:48:00,
2013-03-31 05:50:00,47.6,43.3,30.00,NNW,336,8.1,8.1,85,0.00,CLR,OVC,0.00,WeatherDisplay:10.37,2013-03-31 12:50:00,
2013-03-31 05:53:00,47.5,43.2,29.99,NNW,344,3.5,3.5,85,0.00,CLR,OVC,0.00,WeatherDisplay:10.37,2013-03-31 12:53:00,
2013-03-31 05:55:00,47.5,43.2,29.99,NNW,342,3.5,3.5,85,0.00,CLR,OVC,0.00,WeatherDisplay:10.37,2013-03-31 12:55:00,
2013-03-31 05:57:00,47.4,43.1,30.00,NNW,340,2.3,2.3,85,0.00,CLR,OVC,0.00,WeatherDisplay:10.37,2013-03-31 12:57:00,
2013-03-31 05:58:00,47.4,43.1,30.00,NNW,345,3.5,3.5,85,0.00,CLR,OVC,0.00,WeatherDisplay:10.37,2013-03-31 12:58:00,
2013-03-31 06:00:00,47.3,43.0,29.99,NNW,336,6.0,6.0,85,0.00,CLR,OVC,0.00,WeatherDisplay:10.37,2013-03-31 13:00:00,
2013-03-31 06:02:00,47.3,43.0,29.99,North,360,2.3,2.3,85,0.00,CLR,OVC,0.00,WeatherDisplay:10.37,2013-03-31 13:02:00,
2013-03-31 06:03:00,47.3,43.0,29.99,NW,322,3.0,3.0,85,0.00,CLR,OVC,0.00,WeatherDisplay:10.37,2013-03-31 13:03:00,
2013-03-31 06:05:00,47.3,43.0,29.99,NW,313,5.8,5.8,85,0.00,CLR,OVC,0.00,WeatherDisplay:10.37,2013-03-31 13:05:00,
2013-03-31 06:07:00,47.3,43.0,30.00,NW,325,4.6,4.6,85,0.00,CLR,OVC,0.00,WeatherDisplay:10.37,2013-03-31 13:07:00,
2013-03-31 06:08:00,47.2,42.9,30.00,NW,325,4.6,4.6,85,0.00,CLR,OVC,0.00,WeatherDisplay:10.37,2013-03-31 13:08:00,
2013-03-31 06:10:00,47.2,42.6,30.00,NW,325,3.5,3.5,84,0.00,CLR,OVC,0.00,WeatherDisplay:10.37,2013-03-31 13:10:00,
2013-03-31 06:12:00,47.0,42.7,30.00,NNW,348,2.3,0.0,85,0.00,CLR,OVC,0.00,WeatherDisplay:10.37,2013-03-31 13:12:00,
2013-03-31 06:13:00,47.0,42.7,30.00,NNW,337,3.5,3.5,85,0.00,CLR,OVC,0.00,WeatherDisplay:10.37,2013-03-31 13:13:00,
2013-03-31 06:15:00,46.9,42.6,30.00,NNW,337,3.5,3.5,85,0.00,CLR,OVC,0.00,WeatherDisplay:10.37,2013-03-31 13:15:00,
2013-03-31 06:17:00,46.8,42.5,30.00,NNW,334,3.5,3.5,85,0.00,CLR,OVC,0.00,WeatherDisplay:10.37,2013-03-31 13:17:00,
2013-03-31 06:19:00,46.8,42.5,30.00,NNW,333,4.6,4.6,85,0.00,CLR,OVC,0.00,WeatherDisplay:10.37,2013-03-31 13:19:00,
2013-03-31 06:20:00,46.7,42.4,30.00,NNW,336,4.6,0.0,85,0.00,CLR,OVC,0.00,WeatherDisplay:10.37,2013-03-31 13:20:00,
2013-03-31 06:23:00,46.6,42.3,30.00,North,355,6.9,6.9,85,0.00,CLR,OVC,0.00,WeatherDisplay:10.37,2013-03-31 13:23:00,
2013-03-31 06:24:00,46.5,42.5,30.00,North,355,6.9,6.9,86,0.00,CLR,OVC,0.00,WeatherDisplay:10.37,2013-03-31 13:24:00,
2013-03-31 06:25:00,46.5,42.5,30.00,NNW,345,3.5,3.5,86,0.00,CLR,OVC,0.00,WeatherDisplay:10.37,2013-03-31 13:25:00,
2013-03-31 06:28:00,46.5,42.5,30.00,NNW,333,3.5,3.5,86,0.00,CLR,OVC,0.00,WeatherDisplay:10.37,2013-03-31 13:28:00,
2013-03-31 06:29:00,46.5,42.5,30.00,North,355,4.6,4.6,86,0.00,CLR,OVC,0.00,WeatherDisplay:10.37,2013-03-31 13:29:00,
2013-03-31 06:30:00,46.5,42.5,30.00,NW,322,4.6,4.6,86,0.00,CLR,OVC,0.00,WeatherDisplay:10.37,2013-03-31 13:30:00,
2013-03-31 06:33:00,46.5,42.5,30.00,NNW,338,1.1,1.1,86,0.00,CLR,OVC,0.00,WeatherDisplay:10.37,2013-03-31 13:33:00,
2013-03-31 06:34:00,46.5,42.5,30.00,North,11,2.3,2.3,86,0.00,CLR,OVC,0.00,WeatherDisplay:10.37,2013-03-31 13:34:00,
2013-03-31 06:35:00,46.5,42.5,30.00,North,11,2.3,0.0,86,0.00,CLR,OVC,0.00,WeatherDisplay:10.37,2013-03-31 13:35:00,
2013-03-31 06:38:00,46.3,42.3,30.00,North,360,2.3,2.3,86,0.00,CLR,OVC,0.00,WeatherDisplay:10.37,2013-03-31 13:38:00,
2013-03-31 06:39:00,46.3,42.3,30.00,North,360,2.3,2.3,86,0.00,CLR,OVC,0.00,WeatherDisplay:10.37,2013-03-31 13:39:00,
2013-03-31 06:41:00,46.3,42.6,30.00,NNW,329,9.2,9.2,87,0.00,CLR,OVC,0.00,WeatherDisplay:10.37,2013-03-31 13:41:00,
2013-03-31 06:43:00,46.4,42.7,30.00,NNW,348,2.3,2.3,87,0.00,CLR,OVC,0.00,WeatherDisplay:10.37,2013-03-31 13:43:00,
2013-03-31 06:44:00,46.3,42.3,30.00,North,355,4.6,4.6,86,0.00,CLR,OVC,0.00,WeatherDisplay:10.37,2013-03-31 13:44:00,
2013-03-31 06:46:00,46.3,42.6,30.00,North,355,5.0,5.0,87,0.00,CLR,OVC,0.00,WeatherDisplay:10.37,2013-03-31 13:46:00,
2013-03-31 06:49:00,46.2,42.5,30.00,NNW,342,3.5,3.5,87,0.00,CLR,OVC,0.00,WeatherDisplay:10.37,2013-03-31 13:49:00,
2013-03-31 06:51:00,46.2,42.5,30.00,NNW,338,3.5,3.5,87,0.00,CLR,OVC,0.00,WeatherDisplay:10.37,2013-03-31 13:51:00,
2013-03-31 06:52:00,46.1,42.4,30.00,NNW,338,3.0,3.0,87,0.00,CLR,OVC,0.00,WeatherDisplay:10.37,2013-03-31 13:52:00,
2013-03-31 06:54:00,46.1,42.4,30.00,NNW,331,6.0,6.0,87,0.00,CLR,OVC,0.00,WeatherDisplay:10.37,2013-03-31 13:54:00,
2013-03-31 06:56:00,46.1,42.4,30.00,NNW,338,4.0,4.0,87,0.00,CLR,OVC,0.00,WeatherDisplay:10.37,2013-03-31 13:56:00,
2013-03-31 06:57:00,46.1,42.4,30.00,North,351,6.9,6.9,87,0.00,CLR,OVC,0.00,WeatherDisplay:10.37,2013-03-31 13:57:00,
2013-03-31 06:59:00,46.1,42.4,30.00,NNW,346,3.5,3.5,87,0.00,CLR,OVC,0.00,WeatherDisplay:10.37,2013-03-31 13:59:00,
2013-03-31 07:00:00,46.1,42.4,30.00,NNW,346,2.3,2.3,87,0.00,CLR,OVC,0.00,WeatherDisplay:10.37,2013-03-31 14:00:00,
2013-03-31 07:02:00,46.1,42.4,30.00,NNW,345,3.5,3.5,87,0.00,CLR,OVC,0.00,WeatherDisplay:10.37,2013-03-31 14:02:00,
2013-03-31 07:03:00,46.1,42.4,30.00,NW,326,2.3,2.3,87,0.00,CLR,OVC,0.00,WeatherDisplay:10.37,2013-03-31 14:03:00,
2013-03-31 07:04:00,46.1,42.4,30.00,NNW,342,5.8,5.8,87,0.00,CLR,OVC,0.00,WeatherDisplay:10.37,2013-03-31 14:04:00,
2013-03-31 07:05:00,46.1,42.4,30.01,NE,40,3.5,3.5,87,0.00,CLR,OVC,0.00,WeatherDisplay:10.37,2013-03-31 14:05:00,
2013-03-31 07:07:00,46.2,42.8,30.00,North,360,3.5,3.5,88,0.00,CLR,OVC,0.00,WeatherDisplay:10.37,2013-03-31 14:07:00,
2013-03-31 07:08:00,46.2,42.8,30.00,North,350,2.3,2.3,88,0.00,CLR,OVC,0.00,WeatherDisplay:10.37,2013-03-31 14:08:00,
2013-03-31 07:09:00,46.3,42.6,30.00,NNW,347,2.3,2.3,87,0.00,CLR,OVC,0.00,WeatherDisplay:10.37,2013-03-31 14:09:00,
2013-03-31 07:10:00,46.4,42.7,30.00,NNW,347,3.5,3.5,87,0.00,CLR,OVC,0.00,WeatherDisplay:10.37,2013-03-31 14:10:00,
2013-03-31 07:12:00,46.5,42.8,30.00,NNW,331,4.6,4.6,87,0.00,CLR,OVC,0.00,WeatherDisplay:10.37,2013-03-31 14:12:00,
2013-03-31 07:13:00,46.5,42.8,30.00,NNW,342,3.5,3.5,87,0.00,CLR,OVC,0.00,WeatherDisplay:10.37,2013-03-31 14:13:00,
2013-03-31 07:14:00,46.7,43.0,30.00,NNW,331,3.5,3.5,87,0.00,CLR,OVC,0.00,WeatherDisplay:10.37,2013-03-31 14:14:00,
2013-03-31 07:15:00,46.7,43.0,30.00,NNW,343,1.0,5.0,87,0.00,CLR,OVC,0.00,WeatherDisplay:10.37,2013-03-31 14:15:00,
2013-03-31 07:17:00,46.8,42.8,30.00,North,355,5.8,5.8,86,0.00,CLR,OVC,0.00,WeatherDisplay:10.37,2013-03-31 14:17:00,
2013-03-31 07:18:00,46.9,42.9,30.00,NNW,344,5.8,5.8,86,0.00,CLR,OVC,0.00,WeatherDisplay:10.37,2013-03-31 14:18:00,
2013-03-31 07:19:00,46.9,42.9,30.00,NNW,340,3.5,3.5,86,0.00,CLR,OVC,0.00,WeatherDisplay:10.37,2013-03-31 14:19:00,
2013-03-31 07:20:00,46.9,42.9,30.00,NNW,340,1.0,6.0,86,0.00,CLR,OVC,0.00,WeatherDisplay:10.37,2013-03-31 14:20:00,
2013-03-31 07:22:00,47.0,43.0,30.00,NNW,335,4.6,4.6,86,0.00,CLR,OVC,0.00,WeatherDisplay:10.37,2013-03-31 14:22:00,
2013-03-31 07:23:00,47.0,43.0,30.00,NNW,331,5.0,5.0,86,0.00,CLR,OVC,0.00,WeatherDisplay:10.37,2013-03-31 14:23:00,
2013-03-31 07:24:00,47.1,43.1,30.00,NNW,331,6.9,6.9,86,0.00,CLR,OVC,0.00,WeatherDisplay:10.37,2013-03-31 14:24:00,
2013-03-31 07:25:00,47.2,42.9,30.00,NNW,342,3.0,10.0,85,0.00,CLR,OVC,0.00,WeatherDisplay:10.37,2013-03-31 14:25:00,
2013-03-31 07:27:00,47.4,43.4,30.00,NNW,330,3.5,3.5,86,0.00,CLR,OVC,0.00,WeatherDisplay:10.37,2013-03-31 14:27:00,
2013-03-31 07:28:00,47.4,43.4,30.00,NW,322,3.5,3.5,86,0.00,CLR,OVC,0.00,WeatherDisplay:10.37,2013-03-31 14:28:00,
2013-03-31 07:29:00,47.5,43.2,30.00,NNW,327,3.5,3.5,85,0.00,CLR,OVC,0.00,WeatherDisplay:10.37,2013-03-31 14:29:00,
2013-03-31 07:30:00,47.6,43.3,30.00,NNW,332,1.1,1.3,85,0.00,CLR,OVC,0.00,WeatherDisplay:10.37,2013-03-31 14:30:00,
2013-03-31 07:31:00,47.6,43.3,30.00,NNW,332,4.6,4.6,85,0.00,CLR,OVC,0.00,WeatherDisplay:10.37,2013-03-31 14:31:00,
2013-03-31 07:32:00,47.6,43.3,30.00,NNW,332,4.6,4.6,85,0.00,CLR,OVC,0.00,WeatherDisplay:10.37,2013-03-31 14:32:00,
2013-03-31 07:33:00,47.6,43.3,30.00,NNW,332,4.6,4.6,85,0.00,CLR,OVC,0.00,WeatherDisplay:10.37,2013-03-31 14:33:00,
2013-03-31 07:34:00,47.6,43.3,30.00,NNW,332,4.6,4.6,85,0.00,CLR,OVC,0.00,WeatherDisplay:10.37,2013-03-31 14:34:00,
2013-03-31 07:35:00,47.6,43.3,30.00,NNW,332,4.6,4.6,85,0.00,CLR,OVC,0.00,WeatherDisplay:10.37,2013-03-31 14:35:00,
2013-03-31 07:37:00,47.6,43.3,30.00,NNW,332,4.6,4.6,85,0.00,CLR,OVC,0.00,WeatherDisplay:10.37,2013-03-31 14:37:00,
2013-03-31 07:38:00,47.6,43.3,30.00,NNW,332,4.6,4.6,85,0.00,CLR,OVC,0.00,WeatherDisplay:10.37,2013-03-31 14:38:00,
2013-03-31 07:39:00,47.6,43.3,30.00,NNW,332,4.6,4.6,85,0.00,CLR,OVC,0.00,WeatherDisplay:10.37,2013-03-31 14:39:00,
2013-03-31 07:41:00,47.6,43.3,30.00,NNW,332,4.6,4.6,85,0.00,CLR,OVC,0.00,WeatherDisplay:10.37,2013-03-31 14:41:00,
2013-03-31 07:44:00,47.6,43.3,30.00,NNW,332,4.6,4.6,85,0.00,CLR,OVC,0.00,WeatherDisplay:10.37,2013-03-31 14:44:00,
2013-03-31 07:55:00,47.6,43.3,30.00,NNW,332,4.6,4.6,85,0.00,CLR,OVC,0.00,WeatherDisplay:10.37,2013-03-31 14:55:00,
2013-03-31 08:30:00,47.6,43.3,30.00,NNW,332,4.6,4.6,85,0.00,CLR,OVC,0.00,WeatherDisplay:10.37,2013-03-31 15:30:00,
2013-03-31 08:31:00,47.6,43.3,30.00,NNW,332,4.6,4.6,85,0.00,CLR,OVC,0.00,WeatherDisplay:10.37,2013-03-31 15:31:00,
2013-03-31 08:35:00,47.6,43.3,30.00,NNW,332,4.6,4.6,85,0.00,CLR,OVC,0.00,WeatherDisplay:10.37,2013-03-31 15:35:00,
2013-03-31 08:36:00,47.6,43.3,30.00,NNW,332,4.6,4.6,85,0.00,CLR,OVC,0.00,WeatherDisplay:10.37,2013-03-31 15:36:00,
2013-03-31 08:37:00,47.6,43.3,30.00,NNW,332,4.6,4.6,85,0.00,CLR,OVC,0.00,WeatherDisplay:10.37,2013-03-31 15:37:00,
2013-03-31 08:55:00,47.6,43.3,30.00,NNW,332,4.6,4.6,85,0.00,CLR,OVC,0.00,WeatherDisplay:10.37,2013-03-31 15:55:00,
2013-03-31 09:05:00,47.6,43.3,30.00,NNW,332,4.6,4.6,85,0.00,CLR,OVC,0.00,WeatherDisplay:10.37,2013-03-31 16:05:00,
2013-03-31 10:31:00,47.6,43.3,30.00,NNW,332,4.6,4.6,85,0.00,CLR,OVC,0.00,WeatherDisplay:10.37,2013-03-31 17:31:00,
2013-03-31 11:40:00,47.6,43.3,30.00,NNW,332,4.6,4.6,85,0.00,CLR,OVC,0.00,WeatherDisplay:10.37,2013-03-31 18:40:00,
2013-03-31 16:45:00,47.6,43.3,30.00,NNW,332,4.6,4.6,85,0.00,CLR,OVC,0.00,WeatherDisplay:10.37,2013-03-31 23:45:00,
2013-03-31 17:19:00,71.8,42.7,29.91,South,184,6.9,0.0,35,0.00,CLR,OVC,0.00,WeatherDisplay:10.37,2013-04-01 00:19:00,
2013-03-31 17:24:00,71.8,42.7,29.91,SW,221,3.5,3.5,35,0.00,CLR,OVC,0.00,WeatherDisplay:10.37,2013-04-01 00:24:00,
2013-03-31 17:31:00,71.8,44.1,29.91,SW,224,0.0,0.0,37,0.00,CLR,OVC,0.00,WeatherDisplay:10.37,2013-04-01 00:31:00,
2013-03-31 17:32:00,71.8,44.1,29.91,SW,224,0.0,0.0,37,0.00,CLR,OVC,0.00,WeatherDisplay:10.37,2013-04-01 00:32:00,
2013-03-31 17:37:00,71.7,48.0,29.91,SW,225,2.3,2.3,43,0.00,CLR,OVC,0.00,WeatherDisplay:10.37,2013-04-01 00:37:00,
2013-03-31 17:42:00,71.3,50.0,29.91,SW,225,2.3,2.3,47,0.00,CLR,OVC,0.00,WeatherDisplay:10.37,2013-04-01 00:42:00,
2013-03-31 17:47:00,70.4,50.3,29.91,WSW,250,1.1,0.0,49,0.00,CLR,OVC,0.00,WeatherDisplay:10.37,2013-04-01 00:47:00,
2013-03-31 17:48:00,70.4,49.8,29.91,WSW,250,0.0,0.0,48,0.00,CLR,OVC,0.00,WeatherDisplay:10.37,2013-04-01 00:48:00,
2013-03-31 17:52:00,69.8,49.8,29.91,West,262,0.0,0.0,49,0.00,CLR,OVC,0.00,WeatherDisplay:10.37,2013-04-01 00:52:00,
2013-03-31 17:53:00,69.7,50.2,29.91,West,261,1.1,1.1,50,0.00,CLR,OVC,0.00,WeatherDisplay:10.37,2013-04-01 00:53:00,
2013-03-31 17:57:00,69.2,50.3,29.91,West,261,1.0,0.0,51,0.00,CLR,OVC,0.00,WeatherDisplay:10.37,2013-04-01 00:57:00,
2013-03-31 17:58:00,69.1,50.2,29.91,West,261,0.0,0.0,51,0.00,CLR,OVC,0.00,WeatherDisplay:10.37,2013-04-01 00:58:00,
2013-03-31 18:02:00,68.7,49.8,29.91,West,261,1.1,1.1,51,0.00,CLR,OVC,0.00,WeatherDisplay:10.37,2013-04-01 01:02:00,
2013-03-31 18:03:00,68.7,49.8,29.91,West,262,1.1,1.1,51,0.00,CLR,OVC,0.00,WeatherDisplay:10.37,2013-04-01 01:03:00,
2013-03-31 18:08:00,68.3,50.0,29.91,West,262,1.0,1.0,52,0.00,CLR,OVC,0.00,WeatherDisplay:10.37,2013-04-01 01:08:00,
2013-03-31 18:09:00,68.2,50.4,29.91,West,262,1.1,1.1,53,0.00,CLR,OVC,0.00,WeatherDisplay:10.37,2013-04-01 01:09:00,
2013-03-31 18:13:00,67.9,50.6,29.91,West,261,1.1,1.1,54,0.00,CLR,OVC,0.00,WeatherDisplay:10.37,2013-04-01 01:13:00,
2013-03-31 18:14:00,67.7,49.9,29.91,West,261,1.1,1.1,53,0.00,CLR,OVC,0.00,WeatherDisplay:10.37,2013-04-01 01:14:00,
2013-03-31 18:18:00,67.2,50.0,29.91,West,262,2.3,2.3,54,0.00,CLR,OVC,0.00,WeatherDisplay:10.37,2013-04-01 01:18:00,
2013-03-31 18:19:00,67.0,50.3,29.92,West,261,2.3,2.3,55,0.00,CLR,OVC,0.00,WeatherDisplay:10.37,2013-04-01 01:19:00,
2013-03-31 18:23:00,66.3,50.1,29.92,West,262,2.3,2.3,56,0.00,CLR,OVC,0.00,WeatherDisplay:10.37,2013-04-01 01:23:00,
2013-03-31 18:25:00,66.0,49.8,29.92,West,262,1.0,1.0,56,0.00,CLR,OVC,0.00,WeatherDisplay:10.37,2013-04-01 01:25:00,
2013-03-31 18:28:00,65.4,49.8,29.92,West,262,2.3,2.3,57,0.00,CLR,OVC,0.00,WeatherDisplay:10.37,2013-04-01 01:28:00,
2013-03-31 18:30:00,65.1,50.0,29.92,West,262,2.3,2.3,58,0.00,CLR,OVC,0.00,WeatherDisplay:10.37,2013-04-01 01:30:00,
2013-03-31 18:33:00,64.7,49.6,29.92,West,267,2.3,2.3,58,0.00,CLR,OVC,0.00,WeatherDisplay:10.37,2013-04-01 01:33:00,
2013-03-31 18:34:00,64.6,49.0,29.92,West,267,2.3,2.3,57,0.00,CLR,OVC,0.00,WeatherDisplay:10.37,2013-04-01 01:34:00,
2013-03-31 18:35:00,64.4,48.8,29.92,West,265,3.5,3.5,57,0.00,CLR,OVC,0.00,WeatherDisplay:10.37,2013-04-01 01:35:00,
2013-03-31 18:38:00,64.0,48.5,29.92,West,269,3.5,3.5,57,0.00,CLR,OVC,0.00,WeatherDisplay:10.37,2013-04-01 01:38:00,
2013-03-31 18:39:00,64.0,48.9,29.92,NNW,338,3.5,3.5,58,0.00,CLR,OVC,0.00,WeatherDisplay:10.37,2013-04-01 01:39:00,
2013-03-31 18:40:00,63.9,48.4,29.92,North,360,3.5,3.5,57,0.00,CLR,OVC,0.00,WeatherDisplay:10.37,2013-04-01 01:40:00,
2013-03-31 18:43:00,63.5,48.9,29.92,West,264,3.5,3.5,59,0.00,CLR,OVC,0.00,WeatherDisplay:10.37,2013-04-01 01:43:00,
2013-03-31 18:44:00,63.4,48.8,29.92,West,264,2.3,2.3,59,0.00,CLR,OVC,0.00,WeatherDisplay:10.37,2013-04-01 01:44:00,
2013-03-31 18:45:00,63.3,48.7,29.92,West,267,3.5,3.5,59,0.00,CLR,OVC,0.00,WeatherDisplay:10.37,2013-04-01 01:45:00,
2013-03-31 18:48:00,63.3,48.7,29.92,West,267,2.3,2.3,59,0.00,CLR,OVC,0.00,WeatherDisplay:10.37,2013-04-01 01:48:00,
2013-03-31 18:49:00,62.9,48.8,29.92,West,263,2.3,2.3,60,0.00,CLR,OVC,0.00,WeatherDisplay:10.37,2013-04-01 01:49:00,
2013-03-31 18:50:00,62.8,48.7,29.92,West,263,2.3,2.3,60,0.00,CLR,OVC,0.00,WeatherDisplay:10.37,2013-04-01 01:50:00,
2013-03-31 18:53:00,62.5,48.9,29.92,West,262,2.3,2.3,61,0.00,CLR,OVC,0.00,WeatherDisplay:10.37,2013-04-01 01:53:00,
2013-03-31 18:54:00,62.4,48.8,29.92,West,263,3.5,3.5,61,0.00,CLR,OVC,0.00,WeatherDisplay:10.37,2013-04-01 01:54:00,
2013-03-31 18:55:00,62.3,48.7,29.92,West,263,2.3,2.3,61,0.00,CLR,OVC,0.00,WeatherDisplay:10.37,2013-04-01 01:55:00,
2013-03-31 18:58:00,62.0,48.8,29.92,WSW,257,4.0,4.0,62,0.00,CLR,OVC,0.00,WeatherDisplay:10.37,2013-04-01 01:58:00,
2013-03-31 18:59:00,62.0,48.8,29.92,ENE,58,3.5,3.5,62,0.00,CLR,OVC,0.00,WeatherDisplay:10.37,2013-04-01 01:59:00,
2013-03-31 19:00:00,61.9,48.7,29.92,WNW,300,3.5,3.5,62,0.00,CLR,OVC,0.00,WeatherDisplay:10.37,2013-04-01 02:00:00,
2013-03-31 19:04:00,61.6,48.9,29.92,North,9,3.5,3.5,63,0.00,CLR,OVC,0.00,WeatherDisplay:10.37,2013-04-01 02:04:00,
2013-03-31 19:05:00,61.4,49.1,29.92,North,5,3.5,3.5,64,0.00,CLR,OVC,0.00,WeatherDisplay:10.37,2013-04-01 02:05:00,
2013-03-31 19:09:00,61.0,49.1,29.92,North,355,2.3,2.3,65,0.00,CLR,OVC,0.00,WeatherDisplay:10.37,2013-04-01 02:09:00,
2013-03-31 19:10:00,60.9,49.5,29.92,NNE,15,4.0,4.0,66,0.00,CLR,OVC,0.00,WeatherDisplay:10.37,2013-04-01 02:10:00,
2013-03-31 19:14:00,60.3,49.3,29.92,North,360,3.5,3.5,67,0.00,CLR,OVC,0.00,WeatherDisplay:10.37,2013-04-01 02:14:00,
2013-03-31 19:15:00,60.2,49.2,29.92,North,360,4.0,4.0,67,0.00,CLR,OVC,0.00,WeatherDisplay:10.37,2013-04-01 02:15:00,
2013-03-31 19:19:00,59.7,49.5,29.92,West,268,3.5,3.5,69,0.00,CLR,OVC,0.00,WeatherDisplay:10.37,2013-04-01 02:19:00,
2013-03-31 19:20:00,59.6,49.4,29.92,North,5,3.5,3.5,69,0.00,CLR,OVC,0.00,WeatherDisplay:10.37,2013-04-01 02:20:00,
2013-03-31 19:24:00,58.9,49.1,29.93,West,270,3.5,3.5,70,0.00,CLR,OVC,0.00,WeatherDisplay:10.37,2013-04-01 02:24:00,
2013-03-31 19:25:00,58.9,49.1,29.93,West,268,3.5,3.5,70,0.00,CLR,OVC,0.00,WeatherDisplay:10.37,2013-04-01 02:25:00,
2013-03-31 19:29:00,58.3,48.9,29.93,West,279,2.3,2.3,71,0.00,CLR,OVC,0.00,WeatherDisplay:10.37,2013-04-01 02:29:00,
2013-03-31 19:30:00,58.3,49.3,29.93,West,275,3.5,3.5,72,0.00,CLR,OVC,0.00,WeatherDisplay:10.37,2013-04-01 02:30:00,
2013-03-31 19:34:00,57.8,49.2,29.93,WNW,283,3.5,3.5,73,0.00,CLR,OVC,0.00,WeatherDisplay:10.37,2013-04-01 02:34:00,
2013-03-31 19:35:00,57.7,49.1,29.93,West,281,3.5,3.5,73,0.00,CLR,OVC,0.00,WeatherDisplay:10.37,2013-04-01 02:35:00,
2013-03-31 19:39:00,57.3,49.1,29.93,West,271,4.6,4.6,74,0.00,CLR,OVC,0.00,WeatherDisplay:10.37,2013-04-01 02:39:00,
2013-03-31 19:40:00,57.2,49.0,29.93,West,271,4.0,4.0,74,0.00,CLR,OVC,0.00,WeatherDisplay:10.37,2013-04-01 02:40:00,
2013-03-31 19:41:00,57.1,48.9,29.93,West,270,4.6,4.6,74,0.00,CLR,OVC,0.00,WeatherDisplay:10.37,2013-04-01 02:41:00,
2013-03-31 19:44:00,56.5,48.7,29.93,WSW,257,3.5,3.5,75,0.00,CLR,OVC,0.00,WeatherDisplay:10.37,2013-04-01 02:44:00,
2013-03-31 19:45:00,56.5,48.7,29.93,WSW,257,3.5,3.5,75,0.00,CLR,OVC,0.00,WeatherDisplay:10.37,2013-04-01 02:45:00,
2013-03-31 19:48:00,56.1,48.6,29.93,West,263,4.6,4.6,76,0.00,CLR,OVC,0.00,WeatherDisplay:10.37,2013-04-01 02:48:00,
2013-03-31 19:49:00,55.9,48.8,29.93,West,278,3.5,3.5,77,0.00,CLR,OVC,0.00,WeatherDisplay:10.37,2013-04-01 02:49:00,
2013-03-31 19:50:00,55.8,48.7,29.93,West,276,3.5,3.5,77,0.00,CLR,OVC,0.00,WeatherDisplay:10.37,2013-04-01 02:50:00,
2013-03-31 19:53:00,55.4,48.7,29.93,WSW,258,4.6,4.6,78,0.00,CLR,OVC,0.00,WeatherDisplay:10.37,2013-04-01 02:53:00,
2013-03-31 19:54:00,55.2,48.5,29.93,West,261,4.6,4.6,78,0.00,CLR,OVC,0.00,WeatherDisplay:10.37,2013-04-01 02:54:00,
2013-03-31 19:55:00,55.1,48.7,29.93,West,261,4.6,4.6,79,0.00,CLR,OVC,0.00,WeatherDisplay:10.37,2013-04-01 02:55:00,
2013-03-31 19:58:00,54.7,48.6,29.93,West,261,5.8,5.8,80,0.00,CLR,OVC,0.00,WeatherDisplay:10.37,2013-04-01 02:58:00,
2013-03-31 20:00:00,54.5,48.5,29.94,West,263,3.5,3.5,80,0.00,CLR,OVC,0.00,WeatherDisplay:10.37,2013-04-01 03:00:00,
2013-03-31 20:03:00,53.9,48.2,29.94,West,271,3.5,3.5,81,0.00,CLR,OVC,0.00,WeatherDisplay:10.37,2013-04-01 03:03:00,
2013-03-31 20:05:00,53.7,48.0,29.94,West,267,3.5,3.5,81,0.00,CLR,OVC,0.00,WeatherDisplay:10.37,2013-04-01 03:05:00,
2013-03-31 20:09:00,53.2,48.2,29.94,WSW,257,3.5,3.5,83,0.00,CLR,OVC,0.00,WeatherDisplay:10.37,2013-04-01 03:09:00,
2013-03-31 20:10:00,53.1,48.1,29.94,West,259,4.6,4.6,83,0.00,CLR,OVC,0.00,WeatherDisplay:10.37,2013-04-01 03:10:00,
2013-03-31 20:11:00,53.0,48.0,29.94,West,259,3.5,3.5,83,0.00,CLR,OVC,0.00,WeatherDisplay:10.37,2013-04-01 03:11:00,
2013-03-31 20:14:00,52.9,47.9,29.94,West,259,2.3,2.3,83,0.00,CLR,OVC,0.00,WeatherDisplay:10.37,2013-04-01 03:14:00,
2013-03-31 20:15:00,52.8,48.1,29.94,West,259,3.5,3.5,84,0.00,CLR,OVC,0.00,WeatherDisplay:10.37,2013-04-01 03:15:00,
2013-03-31 20:16:00,52.8,47.8,29.94,West,259,2.3,2.3,83,0.00,CLR,OVC,0.00,WeatherDisplay:10.37,2013-04-01 03:16:00,
2013-03-31 20:19:00,52.7,48.0,29.94,West,261,2.3,2.3,84,0.00,CLR,OVC,0.00,WeatherDisplay:10.37,2013-04-01 03:19:00,
2013-03-31 20:20:00,52.7,48.0,29.94,West,261,1.1,0.0,84,0.00,CLR,OVC,0.00,WeatherDisplay:10.37,2013-04-01 03:20:00,
2013-03-31 20:21:00,52.6,47.9,29.94,West,263,3.0,3.0,84,0.00,CLR,OVC,0.00,WeatherDisplay:10.37,2013-04-01 03:21:00,
2013-03-31 20:24:00,52.6,47.9,29.95,West,263,2.3,2.3,84,0.00,CLR,OVC,0.00,WeatherDisplay:10.37,2013-04-01 03:24:00,
2013-03-31 20:25:00,52.5,47.8,29.95,West,263,0.0,0.0,84,0.00,CLR,OVC,0.00,WeatherDisplay:10.37,2013-04-01 03:25:00,
2013-03-31 20:28:00,52.5,47.8,29.95,West,263,2.3,2.3,84,0.00,CLR,OVC,0.00,WeatherDisplay:10.37,2013-04-01 03:28:00,
2013-03-31 20:29:00,52.4,47.7,29.95,West,263,0.0,0.0,84,0.00,CLR,OVC,0.00,WeatherDisplay:10.37,2013-04-01 03:29:00,
2013-03-31 20:30:00,52.4,47.7,29.95,West,263,0.0,0.0,84,0.00,CLR,OVC,0.00,WeatherDisplay:10.37,2013-04-01 03:30:00,
2013-03-31 20:33:00,52.3,47.6,29.95,West,263,1.1,1.1,84,0.00,CLR,OVC,0.00,WeatherDisplay:10.37,2013-04-01 03:33:00,
2013-03-31 20:34:00,52.2,47.8,29.95,West,263,1.1,1.1,85,0.00,CLR,OVC,0.00,WeatherDisplay:10.37,2013-04-01 03:34:00,
2013-03-31 20:35:00,52.2,47.8,29.95,West,263,0.0,0.0,85,0.00,CLR,OVC,0.00,WeatherDisplay:10.37,2013-04-01 03:35:00,
2013-03-31 20:36:00,52.2,47.8,29.95,West,263,1.1,1.1,85,0.00,CLR,OVC,0.00,WeatherDisplay:10.37,2013-04-01 03:36:00,
2013-03-31 20:38:00,52.1,47.7,29.95,West,263,1.1,1.1,85,0.00,CLR,OVC,0.00,WeatherDisplay:10.37,2013-04-01 03:38:00,
2013-03-31 20:39:00,52.1,47.7,29.96,West,263,2.3,2.3,85,0.00,CLR,OVC,0.00,WeatherDisplay:10.37,2013-04-01 03:39:00,
2013-03-31 20:40:00,52.1,47.7,29.95,West,263,2.3,2.3,85,0.00,CLR,OVC,0.00,WeatherDisplay:10.37,2013-04-01 03:40:00,
2013-03-31 20:42:00,52.0,47.6,29.95,West,265,1.1,1.1,85,0.00,CLR,OVC,0.00,WeatherDisplay:10.37,2013-04-01 03:42:00,
2013-03-31 20:43:00,51.9,47.5,29.96,West,265,2.3,2.3,85,0.00,CLR,OVC,0.00,WeatherDisplay:10.37,2013-04-01 03:43:00,
2013-03-31 20:44:00,51.9,47.5,29.96,West,265,2.3,2.3,85,0.00,CLR,OVC,0.00,WeatherDisplay:10.37,2013-04-01 03:44:00,
2013-03-31 20:45:00,51.8,47.4,29.96,West,265,2.3,2.3,85,0.00,CLR,OVC,0.00,WeatherDisplay:10.37,2013-04-01 03:45:00,
2013-03-31 20:48:00,51.7,47.6,29.96,West,265,2.3,2.3,86,0.00,CLR,OVC,0.00,WeatherDisplay:10.37,2013-04-01 03:48:00,
2013-03-31 20:50:00,51.5,47.5,29.96,West,279,3.5,3.5,86,0.00,CLR,OVC,0.00,WeatherDisplay:10.37,2013-04-01 03:50:00,
2013-03-31 20:53:00,51.3,47.6,29.97,West,278,3.5,3.5,87,0.00,CLR,OVC,0.00,WeatherDisplay:10.37,2013-04-01 03:53:00,
2013-03-31 20:55:00,51.1,47.4,29.97,West,279,2.3,2.3,87,0.00,CLR,OVC,0.00,WeatherDisplay:10.37,2013-04-01 03:55:00,
2013-03-31 20:58:00,50.8,47.4,29.97,WNW,285,3.5,3.5,88,0.00,CLR,OVC,0.00,WeatherDisplay:10.37,2013-04-01 03:58:00,
2013-03-31 20:59:00,50.8,47.4,29.97,West,281,3.5,3.5,88,0.00,CLR,OVC,0.00,WeatherDisplay:10.37,2013-04-01 03:59:00,
2013-03-31 21:00:00,50.6,47.2,29.97,WNW,282,3.0,3.0,88,0.00,CLR,OVC,0.00,WeatherDisplay:10.37,2013-04-01 04:00:00,
2013-03-31 21:01:00,50.6,47.2,29.97,West,277,3.5,3.5,88,0.00,CLR,OVC,0.00,WeatherDisplay:10.37,2013-04-01 04:01:00,
2013-03-31 21:05:00,50.3,47.2,29.97,West,277,2.3,2.3,89,0.00,CLR,OVC,0.00,WeatherDisplay:10.37,2013-04-01 04:05:00,
2013-03-31 21:07:00,50.2,47.1,29.97,WNW,282,2.3,2.3,89,0.00,CLR,OVC,0.00,WeatherDisplay:10.37,2013-04-01 04:07:00,
2013-03-31 21:10:00,50.1,47.3,29.97,WNW,286,3.5,3.5,90,0.00,CLR,OVC,0.00,WeatherDisplay:10.37,2013-04-01 04:10:00,
2013-03-31 21:11:00,50.1,47.3,29.97,West,274,2.3,2.3,90,0.00,CLR,OVC,0.00,WeatherDisplay:10.37,2013-04-01 04:11:00,
2013-03-31 21:12:00,50.1,47.3,29.97,West,274,2.3,2.3,90,0.00,CLR,OVC,0.00,WeatherDisplay:10.37,2013-04-01 04:12:00,
2013-03-31 21:13:00,50.1,47.3,29.97,WNW,284,2.3,2.3,90,0.00,CLR,OVC,0.00,WeatherDisplay:10.37,2013-04-01 04:13:00,
2013-03-31 21:15:00,50.1,47.3,29.97,WNW,284,2.3,2.3,90,0.00,CLR,OVC,0.00,WeatherDisplay:10.37,2013-04-01 04:15:00,
2013-03-31 21:16:00,50.1,47.3,29.97,West,275,3.5,3.5,90,0.00,CLR,OVC,0.00,WeatherDisplay:10.37,2013-04-01 04:16:00,
2013-03-31 21:17:00,50.1,47.3,29.97,West,275,3.5,3.5,90,0.00,CLR,OVC,0.00,WeatherDisplay:10.37,2013-04-01 04:17:00,
2013-03-31 21:18:00,50.0,47.2,29.97,West,275,2.3,2.3,90,0.00,CLR,OVC,0.00,WeatherDisplay:10.37,2013-04-01 04:18:00,
2013-03-31 21:20:00,50.0,47.2,29.97,West,275,0.0,0.0,90,0.00,CLR,OVC,0.00,WeatherDisplay:10.37,2013-04-01 04:20:00,
2013-03-31 21:21:00,50.0,47.2,29.97,WNW,288,1.1,1.1,90,0.00,CLR,OVC,0.00,WeatherDisplay:10.37,2013-04-01 04:21:00,
2013-03-31 21:22:00,50.0,47.2,29.98,WNW,288,1.1,1.1,90,0.00,CLR,OVC,0.00,WeatherDisplay:10.37,2013-04-01 04:22:00,
2013-03-31 21:23:00,50.0,47.2,29.98,WNW,288,1.1,1.1,90,0.00,CLR,OVC,0.00,WeatherDisplay:10.37,2013-04-01 04:23:00,
2013-03-31 21:25:00,49.9,47.1,29.98,WNW,288,1.1,0.0,90,0.00,CLR,OVC,0.00,WeatherDisplay:10.37,2013-04-01 04:25:00,
2013-03-31 21:27:00,49.9,47.1,29.98,WNW,288,0.0,0.0,90,0.00,CLR,OVC,0.00,WeatherDisplay:10.37,2013-04-01 04:27:00,
2013-03-31 21:28:00,49.9,47.1,29.98,WNW,288,0.0,0.0,90,0.00,CLR,OVC,0.00,WeatherDisplay:10.37,2013-04-01 04:28:00,
2013-03-31 21:30:00,49.9,47.1,29.98,WNW,283,3.5,3.5,90,0.00,CLR,OVC,0.00,WeatherDisplay:10.37,2013-04-01 04:30:00,
2013-03-31 21:32:00,49.9,47.1,29.98,WNW,283,2.3,2.3,90,0.00,CLR,OVC,0.00,WeatherDisplay:10.37,2013-04-01 04:32:00,
2013-03-31 21:33:00,50.0,47.2,29.98,WNW,283,0.0,0.0,90,0.00,CLR,OVC,0.00,WeatherDisplay:10.37,2013-04-01 04:33:00,
2013-03-31 21:36:00,50.0,47.2,29.98,WNW,283,0.0,0.0,90,0.00,CLR,OVC,0.00,WeatherDisplay:10.37,2013-04-01 04:36:00,
2013-03-31 21:37:00,50.0,47.2,29.98,WNW,283,0.0,0.0,90,0.00,CLR,OVC,0.00,WeatherDisplay:10.37,2013-04-01 04:37:00,
2013-03-31 21:38:00,50.0,47.2,29.98,WNW,283,0.0,0.0,90,0.00,CLR,OVC,0.00,WeatherDisplay:10.37,2013-04-01 04:38:00,
2013-03-31 21:42:00,50.0,47.2,29.98,WNW,283,0.0,0.0,90,0.00,CLR,OVC,0.00,WeatherDisplay:10.37,2013-04-01 04:42:00,
2013-03-31 21:43:00,50.1,47.3,29.99,WNW,283,0.0,0.0,90,0.00,CLR,OVC,0.00,WeatherDisplay:10.37,2013-04-01 04:43:00,
2013-03-31 21:47:00,50.1,47.3,29.99,WNW,283,0.0,0.0,90,0.00,CLR,OVC,0.00,WeatherDisplay:10.37,2013-04-01 04:47:00,
2013-03-31 21:48:00,50.1,47.3,29.99,WNW,283,0.0,0.0,90,0.00,CLR,OVC,0.00,WeatherDisplay:10.37,2013-04-01 04:48:00,
2013-03-31 21:49:00,50.1,47.3,29.99,WNW,283,0.0,0.5,90,0.00,CLR,OVC,0.00,WeatherDisplay:10.37,2013-04-01 04:49:00,
2013-03-31 21:52:00,50.1,47.3,29.99,WNW,283,1.1,1.1,90,0.00,CLR,OVC,0.00,WeatherDisplay:10.37,2013-04-01 04:52:00,
2013-03-31 21:53:00,50.1,47.3,29.99,WNW,283,0.0,0.0,90,0.00,CLR,OVC,0.00,WeatherDisplay:10.37,2013-04-01 04:53:00,
2013-03-31 21:54:00,50.1,47.3,29.99,WNW,283,0.0,0.0,90,0.00,CLR,OVC,0.00,WeatherDisplay:10.37,2013-04-01 04:54:00,
2013-03-31 21:57:00,50.0,47.2,29.99,WNW,283,0.0,0.0,90,0.00,CLR,OVC,0.00,WeatherDisplay:10.37,2013-04-01 04:57:00,
2013-03-31 21:58:00,50.0,47.2,29.99,WNW,283,1.1,1.1,90,0.00,CLR,OVC,0.00,WeatherDisplay:10.37,2013-04-01 04:58:00,
2013-03-31 21:59:00,50.0,47.2,29.99,WNW,283,1.1,0.0,90,0.00,CLR,OVC,0.00,WeatherDisplay:10.37,2013-04-01 04:59:00,
2013-03-31 22:02:00,49.9,47.1,29.99,WNW,283,2.0,2.0,90,0.00,CLR,OVC,0.00,WeatherDisplay:10.37,2013-04-01 05:02:00,
2013-03-31 22:03:00,49.9,47.1,29.99,West,276,3.5,3.5,90,0.00,CLR,OVC,0.00,WeatherDisplay:10.37,2013-04-01 05:03:00,
2013-03-31 22:04:00,49.9,47.1,29.99,West,276,3.5,3.5,90,0.00,CLR,OVC,0.00,WeatherDisplay:10.37,2013-04-01 05:04:00,
2013-03-31 22:05:00,49.9,47.1,29.99,West,276,2.3,2.3,90,0.00,CLR,OVC,0.00,WeatherDisplay:10.37,2013-04-01 05:05:00,
2013-03-31 22:08:00,49.7,46.9,29.99,West,267,2.3,2.3,90,0.00,CLR,OVC,0.00,WeatherDisplay:10.37,2013-04-01 05:08:00,
2013-03-31 22:09:00,49.6,46.8,29.99,West,267,2.3,2.3,90,0.00,CLR,OVC,0.00,WeatherDisplay:10.37,2013-04-01 05:09:00,
2013-03-31 22:10:00,49.6,47.1,29.99,West,267,2.3,2.3,91,0.00,CLR,OVC,0.00,WeatherDisplay:10.37,2013-04-01 05:10:00,
2013-03-31 22:13:00,49.5,47.0,29.99,West,267,2.3,2.3,91,0.00,CLR,OVC,0.00,WeatherDisplay:10.37,2013-04-01 05:13:00,
2013-03-31 22:14:00,49.5,47.0,29.99,West,267,1.1,0.0,91,0.00,CLR,OVC,0.00,WeatherDisplay:10.37,2013-04-01 05:14:00,
2013-03-31 22:15:00,49.4,46.9,29.99,West,267,2.3,2.3,91,0.00,CLR,OVC,0.00,WeatherDisplay:10.37,2013-04-01 05:15:00,
2013-03-31 22:18:00,49.2,46.7,29.99,West,269,3.0,3.0,91,0.00,CLR,OVC,0.00,WeatherDisplay:10.37,2013-04-01 05:18:00,
2013-03-31 22:19:00,49.2,46.7,29.99,West,269,3.5,3.5,91,0.00,CLR,OVC,0.00,WeatherDisplay:10.37,2013-04-01 05:19:00,
2013-03-31 22:20:00,49.2,46.7,29.99,West,269,1.1,1.1,91,0.00,CLR,OVC,0.00,WeatherDisplay:10.37,2013-04-01 05:20:00,
2013-03-31 22:23:00,49.0,46.8,29.99,West,269,1.1,1.1,92,0.00,CLR,OVC,0.00,WeatherDisplay:10.37,2013-04-01 05:23:00,
2013-03-31 22:24:00,49.0,46.8,29.99,West,269,2.3,2.3,92,0.00,CLR,OVC,0.00,WeatherDisplay:10.37,2013-04-01 05:24:00,
2013-03-31 22:25:00,48.9,46.7,30.00,West,269,2.3,2.3,92,0.00,CLR,OVC,0.00,WeatherDisplay:10.37,2013-04-01 05:25:00,
2013-03-31 22:28:00,48.7,46.5,30.00,West,269,2.3,2.3,92,0.00,CLR,OVC,0.00,WeatherDisplay:10.37,2013-04-01 05:28:00,
2013-03-31 22:29:00,48.7,46.5,30.00,West,269,2.3,2.3,92,0.00,CLR,OVC,0.00,WeatherDisplay:10.37,2013-04-01 05:29:00,
2013-03-31 22:30:00,48.6,46.7,30.00,West,269,2.3,2.3,93,0.00,CLR,OVC,0.00,WeatherDisplay:10.37,2013-04-01 05:30:00,
2013-03-31 22:33:00,48.5,46.6,30.00,West,269,3.5,3.5,93,0.00,CLR,OVC,0.00,WeatherDisplay:10.37,2013-04-01 05:33:00,
2013-03-31 22:34:00,48.5,46.6,30.00,West,269,2.3,2.3,93,0.00,CLR,OVC,0.00,WeatherDisplay:10.37,2013-04-01 05:34:00,
2013-03-31 22:35:00,48.4,46.5,30.00,West,269,2.3,2.3,93,0.00,CLR,OVC,0.00,WeatherDisplay:10.37,2013-04-01 05:35:00,
2013-03-31 22:38:00,48.3,46.4,30.00,West,269,1.1,1.1,93,0.00,CLR,OVC,0.00,WeatherDisplay:10.37,2013-04-01 05:38:00,
2013-03-31 22:39:00,48.3,46.4,30.00,West,269,1.1,1.1,93,0.00,CLR,OVC,0.00,WeatherDisplay:10.37,2013-04-01 05:39:00,
2013-03-31 22:40:00,48.3,46.4,30.00,West,269,1.1,1.1,93,0.00,CLR,OVC,0.00,WeatherDisplay:10.37,2013-04-01 05:40:00,
2013-03-31 22:41:00,48.3,46.4,30.00,West,269,0.0,1.0,93,0.00,CLR,OVC,0.00,WeatherDisplay:10.37,2013-04-01 05:41:00,
2013-03-31 22:44:00,48.2,47.7,30.00,West,269,1.1,0.0,98,0.00,CLR,OVC,0.00,WeatherDisplay:10.37,2013-04-01 05:44:00,
2013-03-31 22:45:00,48.2,47.7,30.00,West,269,1.1,1.1,98,0.00,CLR,OVC,0.00,WeatherDisplay:10.37,2013-04-01 05:45:00,
2013-03-31 22:47:00,48.1,46.5,30.00,West,269,2.3,2.3,94,0.00,CLR,OVC,0.00,WeatherDisplay:10.37,2013-04-01 05:47:00,
2013-03-31 22:49:00,48.1,46.5,30.00,West,269,2.3,2.3,94,0.00,CLR,OVC,0.00,WeatherDisplay:10.37,2013-04-01 05:49:00,
2013-03-31 22:50:00,48.0,46.4,30.00,West,269,2.3,2.3,94,0.00,CLR,OVC,0.00,WeatherDisplay:10.37,2013-04-01 05:50:00,
2013-03-31 22:52:00,48.0,46.4,30.00,West,269,2.3,2.3,94,0.00,CLR,OVC,0.00,WeatherDisplay:10.37,2013-04-01 05:52:00,
2013-03-31 22:54:00,47.9,46.3,30.00,West,269,1.1,1.1,94,0.00,CLR,OVC,0.00,WeatherDisplay:10.37,2013-04-01 05:54:00,
2013-03-31 22:55:00,47.9,46.3,30.00,West,269,1.1,1.1,94,0.00,CLR,OVC,0.00,WeatherDisplay:10.37,2013-04-01 05:55:00,
2013-03-31 22:57:00,47.8,46.2,30.00,West,269,1.1,1.1,94,0.00,CLR,OVC,0.00,WeatherDisplay:10.37,2013-04-01 05:57:00,
2013-03-31 22:59:00,47.8,46.2,30.00,West,269,1.1,0.0,94,0.00,CLR,OVC,0.00,WeatherDisplay:10.37,2013-04-01 05:59:00,
2013-03-31 23:00:00,47.8,46.2,30.00,West,269,1.1,1.1,94,0.00,CLR,OVC,0.00,WeatherDisplay:10.37,2013-04-01 06:00:00,
2013-03-31 23:02:00,47.7,46.1,30.00,West,267,1.1,1.1,94,0.00,CLR,OVC,0.00,WeatherDisplay:10.37,2013-04-01 06:02:00,
2013-03-31 23:04:00,47.6,46.0,30.00,West,267,2.3,2.3,94,0.00,CLR,OVC,0.00,WeatherDisplay:10.37,2013-04-01 06:04:00,
2013-03-31 23:05:00,47.6,46.2,30.00,West,267,1.1,1.1,95,0.00,CLR,OVC,0.00,WeatherDisplay:10.37,2013-04-01 06:05:00,
2013-03-31 23:07:00,47.6,46.2,30.00,West,267,2.3,2.3,95,0.00,CLR,OVC,0.00,WeatherDisplay:10.37,2013-04-01 06:07:00,
2013-03-31 23:08:00,47.5,46.1,30.00,West,267,3.5,3.5,95,0.00,CLR,OVC,0.00,WeatherDisplay:10.37,2013-04-01 06:08:00,
2013-03-31 23:09:00,47.4,46.0,30.00,West,267,3.5,3.5,95,0.00,CLR,OVC,0.00,WeatherDisplay:10.37,2013-04-01 06:09:00,
2013-03-31 23:11:00,47.4,46.0,30.00,West,267,3.5,3.5,95,0.00,CLR,OVC,0.00,WeatherDisplay:10.37,2013-04-01 06:11:00,
2013-03-31 23:12:00,47.4,46.0,30.00,West,267,3.5,3.5,95,0.00,CLR,OVC,0.00,WeatherDisplay:10.37,2013-04-01 06:12:00,
2013-03-31 23:13:00,47.3,45.9,30.00,West,267,2.3,2.3,95,0.00,CLR,OVC,0.00,WeatherDisplay:10.37,2013-04-01 06:13:00,
2013-03-31 23:15:00,47.3,45.9,30.00,West,267,2.3,2.3,95,0.00,CLR,OVC,0.00,WeatherDisplay:10.37,2013-04-01 06:15:00,
2013-03-31 23:17:00,47.3,46.2,30.00,West,267,2.3,2.3,96,0.00,CLR,OVC,0.00,WeatherDisplay:10.37,2013-04-01 06:17:00,
2013-03-31 23:18:00,47.2,46.1,30.00,West,267,3.0,3.0,96,0.00,CLR,OVC,0.00,WeatherDisplay:10.37,2013-04-01 06:18:00,
2013-03-31 23:20:00,47.1,46.0,30.00,West,267,3.5,3.5,96,0.00,CLR,OVC,0.00,WeatherDisplay:10.37,2013-04-01 06:20:00,
2013-03-31 23:22:00,47.1,46.0,30.00,West,267,3.5,3.5,96,0.00,CLR,OVC,0.00,WeatherDisplay:10.37,2013-04-01 06:22:00,
2013-03-31 23:23:00,47.0,45.9,30.00,West,267,3.5,3.5,96,0.00,CLR,OVC,0.00,WeatherDisplay:10.37,2013-04-01 06:23:00,
2013-03-31 23:25:00,47.0,45.9,30.00,West,267,1.1,1.1,96,0.00,CLR,OVC,0.00,WeatherDisplay:10.37,2013-04-01 06:25:00,
2013-03-31 23:27:00,47.0,45.9,30.00,West,267,1.1,1.1,96,0.00,CLR,OVC,0.00,WeatherDisplay:10.37,2013-04-01 06:27:00,
2013-03-31 23:29:00,46.9,45.8,30.00,West,267,2.3,2.3,96,0.00,CLR,OVC,0.00,WeatherDisplay:10.37,2013-04-01 06:29:00,
2013-03-31 23:30:00,46.9,45.8,30.00,West,265,3.5,3.5,96,0.00,CLR,OVC,0.00,WeatherDisplay:10.37,2013-04-01 06:30:00,
2013-03-31 23:33:00,46.9,45.8,30.00,West,264,3.5,3.5,96,0.00,CLR,OVC,0.00,WeatherDisplay:10.37,2013-04-01 06:33:00,
2013-03-31 23:34:00,46.9,45.8,30.00,West,264,2.3,2.3,96,0.00,CLR,OVC,0.00,WeatherDisplay:10.37,2013-04-01 06:34:00,
2013-03-31 23:35:00,46.9,45.8,30.00,West,264,3.5,3.5,96,0.00,CLR,OVC,0.00,WeatherDisplay:10.37,2013-04-01 06:35:00,
2013-03-31 23:38:00,46.8,46.0,30.00,West,263,3.5,3.5,97,0.00,CLR,OVC,0.00,WeatherDisplay:10.37,2013-04-01 06:38:00,
2013-03-31 23:39:00,46.8,46.0,30.00,West,263,3.5,3.5,97,0.00,CLR,OVC,0.00,WeatherDisplay:10.37,2013-04-01 06:39:00,
2013-03-31 23:40:00,46.8,46.0,30.00,West,263,3.5,3.5,97,0.00,CLR,OVC,0.00,WeatherDisplay:10.37,2013-04-01 06:40:00,
2013-03-31 23:43:00,46.8,46.0,30.00,West,260,3.5,3.5,97,0.00,CLR,OVC,0.00,WeatherDisplay:10.37,2013-04-01 06:43:00,
2013-03-31 23:44:00,46.7,45.9,30.00,West,260,3.5,3.5,97,0.00,CLR,OVC,0.00,WeatherDisplay:10.37,2013-04-01 06:44:00,
2013-03-31 23:45:00,46.7,45.9,30.00,West,260,3.5,3.5,97,0.00,CLR,OVC,0.00,WeatherDisplay:10.37,2013-04-01 06:45:00,
2013-03-31 23:48:00,46.7,45.9,30.00,West,260,2.3,2.3,97,0.00,CLR,OVC,0.00,WeatherDisplay:10.37,2013-04-01 06:48:00,
2013-03-31 23:49:00,46.7,45.9,30.00,West,260,3.5,3.5,97,0.00,CLR,OVC,0.00,WeatherDisplay:10.37,2013-04-01 06:49:00,
2013-03-31 23:50:00,46.7,45.9,30.00,West,260,3.5,3.5,97,0.00,CLR,OVC,0.00,WeatherDisplay:10.37,2013-04-01 06:50:00,
2013-03-31 23:54:00,46.7,45.9,30.00,West,259,3.5,3.5,97,0.00,CLR,OVC,0.00,WeatherDisplay:10.37,2013-04-01 06:54:00,
2013-03-31 23:55:00,46.7,45.9,30.00,West,259,3.5,3.5,97,0.00,CLR,OVC,0.00,WeatherDisplay:10.37,2013-04-01 06:55:00,
2013-03-31 23:59:00,46.7,45.9,30.01,West,259,3.5,3.5,97,0.00,CLR,OVC,0.00,WeatherDisplay:10.37,2013-04-01 06:59:00,